Time,TemperatureF,DewpointF,PressureIn,WindDirection,WindDirectionDegrees,WindSpeedMPH,WindSpeedGustMPH,Humidity,HourlyPrecipIn,Conditions,Clouds,dailyrainin,SoftwareType,DateUTC
2013-06-12 00:00:00,75.4,49.4,29.41,NNW,338,4.6,4.6,40,0.00,CLR,,0.00,WeatherDisplay:10.37,2013-06-11 21:00:00,
2013-06-12 00:01:00,75.4,48.7,29.41,North,0,6.0,6.0,39,0.00,CLR,,0.00,WeatherDisplay:10.37,2013-06-11 21:01:00,
2013-06-12 00:02:00,75.4,48.0,29.41,NNE,22,5.8,5.8,38,0.00,CLR,,0.00,WeatherDisplay:10.37,2013-06-11 21:02:00,
2013-06-12 00:03:00,75.6,48.2,29.41,North,0,5.8,5.8,38,0.00,CLR,,0.00,WeatherDisplay:10.37,2013-06-11 21:03:00,
2013-06-12 00:05:00,75.6,48.2,29.41,NNE,22,5.8,5.8,38,0.00,CLR,,0.00,WeatherDisplay:10.37,2013-06-11 21:05:00,
2013-06-12 00:07:00,75.7,47.6,29.41,ENE,68,4.6,4.6,37,0.00,CLR,,0.00,WeatherDisplay:10.37,2013-06-11 21:07:00,
2013-06-12 00:08:00,75.7,47.6,29.41,NNE,22,2.4,2.4,37,0.00,CLR,,0.00,WeatherDisplay:10.37,2013-06-11 21:08:00,
2013-06-12 00:10:00,75.7,47.6,29.44,NE,45,3.5,3.5,37,0.00,CLR,,0.00,WeatherDisplay:10.37,2013-06-11 21:10:00,
2013-06-12 00:12:00,75.7,46.9,29.44,NNE,22,2.6,2.6,36,0.00,CLR,,0.00,WeatherDisplay:10.37,2013-06-11 21:12:00,
2013-06-12 00:13:00,75.7,46.9,29.44,NNE,22,2.3,2.3,36,0.00,CLR,,0.00,WeatherDisplay:10.37,2013-06-11 21:13:00,
2013-06-12 00:15:00,75.9,47.0,29.44,NE,45,3.5,3.5,36,0.00,CLR,,0.00,WeatherDisplay:10.37,2013-06-11 21:15:00,
2013-06-12 00:17:00,75.9,46.3,29.44,ENE,68,2.3,2.3,35,0.00,CLR,,0.00,WeatherDisplay:10.37,2013-06-11 21:17:00,
2013-06-12 00:18:00,75.9,46.3,29.44,ENE,68,2.6,2.6,35,0.00,CLR,,0.00,WeatherDisplay:10.37,2013-06-11 21:18:00,
2013-06-12 00:19:00,75.9,46.3,29.44,ENE,68,2.3,2.3,35,0.00,CLR,,0.00,WeatherDisplay:10.37,2013-06-11 21:19:00,
2013-06-12 00:21:00,76.1,46.5,29.44,WNW,292,4.6,4.6,35,0.00,CLR,,0.00,WeatherDisplay:10.37,2013-06-11 21:21:00,
2013-06-12 00:23:00,76.1,46.5,29.44,WSW,248,4.6,4.6,35,0.00,CLR,,0.00,WeatherDisplay:10.37,2013-06-11 21:23:00,
2013-06-12 00:24:00,76.1,46.5,29.41,WSW,248,3.3,3.3,35,0.00,CLR,,0.00,WeatherDisplay:10.37,2013-06-11 21:24:00,
2013-06-12 00:26:00,76.1,46.5,29.41,WSW,248,4.9,4.9,35,0.00,CLR,,0.00,WeatherDisplay:10.37,2013-06-11 21:26:00,
2013-06-12 00:28:00,75.9,46.3,29.41,SW,225,2.3,2.3,35,0.00,CLR,,0.00,WeatherDisplay:10.37,2013-06-11 21:28:00,
2013-06-12 00:29:00,75.9,46.3,29.41,SSW,202,3.5,0.0,35,0.00,CLR,,0.00,WeatherDisplay:10.37,2013-06-11 21:29:00,
2013-06-12 00:32:00,75.6,46.7,29.41,SSW,202,2.3,2.3,36,0.00,CLR,,0.00,WeatherDisplay:10.37,2013-06-11 21:32:00,
2013-06-12 00:33:00,75.6,46.7,29.41,WSW,248,4.6,4.6,36,0.00,CLR,,0.00,WeatherDisplay:10.37,2013-06-11 21:33:00,
2013-06-12 00:34:00,75.6,46.7,29.41,SW,225,4.6,4.6,36,0.00,CLR,,0.00,WeatherDisplay:10.37,2013-06-11 21:34:00,
2013-06-12 00:37:00,75.4,46.6,29.41,WSW,248,5.8,5.8,36,0.00,CLR,,0.00,WeatherDisplay:10.37,2013-06-11 21:37:00,
2013-06-12 00:38:00,75.4,45.8,29.41,West,270,5.8,5.8,35,0.00,CLR,,0.00,WeatherDisplay:10.37,2013-06-11 21:38:00,
2013-06-12 00:39:00,75.4,45.8,29.44,WSW,248,4.6,4.6,35,0.00,CLR,,0.00,WeatherDisplay:10.37,2013-06-11 21:39:00,
2013-06-12 00:40:00,75.4,45.8,29.44,WSW,248,4.6,4.6,35,0.00,CLR,,0.00,WeatherDisplay:10.37,2013-06-11 21:40:00,
2013-06-12 00:42:00,75.4,45.8,29.44,WNW,292,5.8,5.8,35,0.00,CLR,,0.00,WeatherDisplay:10.37,2013-06-11 21:42:00,
2013-06-12 00:43:00,75.4,45.1,29.44,WNW,292,8.1,8.1,34,0.00,CLR,,0.00,WeatherDisplay:10.37,2013-06-11 21:43:00,
2013-06-12 00:44:00,75.4,45.1,29.44,WSW,248,9.2,9.2,34,0.00,CLR,,0.00,WeatherDisplay:10.37,2013-06-11 21:44:00,
2013-06-12 00:45:00,75.4,45.1,29.44,West,270,9.2,9.2,34,0.00,CLR,,0.00,WeatherDisplay:10.37,2013-06-11 21:45:00,
2013-06-12 00:47:00,75.4,45.1,29.44,West,270,3.5,3.5,34,0.00,CLR,,0.00,WeatherDisplay:10.37,2013-06-11 21:47:00,
2013-06-12 00:48:00,75.4,45.1,29.44,West,270,6.2,6.2,34,0.00,CLR,,0.00,WeatherDisplay:10.37,2013-06-11 21:48:00,
2013-06-12 00:49:00,75.4,45.1,29.44,WSW,248,5.8,5.8,34,0.00,CLR,,0.00,WeatherDisplay:10.37,2013-06-11 21:49:00,
2013-06-12 00:51:00,75.4,45.8,29.44,West,270,5.8,5.8,35,0.00,CLR,,0.00,WeatherDisplay:10.37,2013-06-11 21:51:00,
2013-06-12 00:52:00,75.4,45.8,29.44,NNW,338,5.8,5.8,35,0.00,CLR,,0.00,WeatherDisplay:10.37,2013-06-11 21:52:00,
2013-06-12 00:54:00,75.2,45.7,29.44,WNW,292,4.6,4.6,35,0.00,CLR,,0.00,WeatherDisplay:10.37,2013-06-11 21:54:00,
2013-06-12 00:57:00,75.2,45.7,29.44,West,270,5.8,5.8,35,0.00,CLR,,0.00,WeatherDisplay:10.37,2013-06-11 21:57:00,
2013-06-12 00:59:00,75.0,45.5,29.44,West,270,4.6,4.6,35,0.00,CLR,,0.00,WeatherDisplay:10.37,2013-06-11 21:59:00,
2013-06-12 01:02:00,74.7,45.2,29.44,West,270,1.2,0.0,35,0.00,CLR,,0.00,WeatherDisplay:10.37,2013-06-11 22:02:00,
2013-06-12 01:04:00,74.7,45.2,29.44,West,270,1.2,0.0,35,0.00,CLR,,0.00,WeatherDisplay:10.37,2013-06-11 22:04:00,
2013-06-12 01:05:00,74.5,45.0,29.44,West,270,1.2,0.0,35,0.00,CLR,,0.00,WeatherDisplay:10.37,2013-06-11 22:05:00,
2013-06-12 01:07:00,74.5,45.8,29.44,WSW,248,1.2,0.0,36,0.00,CLR,,0.00,WeatherDisplay:10.37,2013-06-11 22:07:00,
2013-06-12 01:09:00,74.3,45.6,29.41,WNW,292,0.0,0.0,36,0.00,CLR,,0.00,WeatherDisplay:10.37,2013-06-11 22:09:00,
2013-06-12 01:10:00,74.3,45.6,29.41,West,263,0.0,3.0,36,0.00,CLR,,0.00,WeatherDisplay:10.37,2013-06-11 22:10:00,
2013-06-12 01:12:00,74.3,45.6,29.41,WSW,248,4.6,4.6,36,0.00,CLR,,0.00,WeatherDisplay:10.37,2013-06-11 22:12:00,
2013-06-12 01:14:00,74.3,45.6,29.41,WNW,292,5.8,5.8,36,0.00,CLR,,0.00,WeatherDisplay:10.37,2013-06-11 22:14:00,
2013-06-12 01:15:00,74.3,44.9,29.41,West,270,6.0,6.0,35,0.00,CLR,,0.00,WeatherDisplay:10.37,2013-06-11 22:15:00,
2013-06-12 01:17:00,74.3,44.1,29.41,West,270,6.9,6.9,34,0.00,CLR,,0.00,WeatherDisplay:10.37,2013-06-11 22:17:00,
2013-06-12 01:19:00,74.3,44.1,29.41,WSW,248,6.0,6.0,34,0.00,CLR,,0.00,WeatherDisplay:10.37,2013-06-11 22:19:00,
2013-06-12 01:20:00,74.3,43.3,29.41,WNW,292,6.9,6.9,33,0.00,CLR,,0.00,WeatherDisplay:10.37,2013-06-11 22:20:00,
2013-06-12 01:22:00,74.3,43.3,29.41,West,270,5.8,5.8,33,0.00,CLR,,0.00,WeatherDisplay:10.37,2013-06-11 22:22:00,
2013-06-12 01:23:00,74.3,43.3,29.41,West,270,4.6,4.7,33,0.00,CLR,,0.00,WeatherDisplay:10.37,2013-06-11 22:23:00,
2013-06-12 01:24:00,74.3,43.3,29.41,WSW,248,4.6,4.6,33,0.00,CLR,,0.00,WeatherDisplay:10.37,2013-06-11 22:24:00,
2013-06-12 01:25:00,74.3,43.3,29.41,West,270,4.6,4.6,33,0.00,CLR,,0.00,WeatherDisplay:10.37,2013-06-11 22:25:00,
2013-06-12 01:28:00,74.1,43.2,29.41,West,270,8.1,8.1,33,0.00,CLR,,0.00,WeatherDisplay:10.37,2013-06-11 22:28:00,
2013-06-12 01:29:00,74.1,43.2,29.41,NW,315,5.8,5.8,33,0.00,CLR,,0.00,WeatherDisplay:10.37,2013-06-11 22:29:00,
2013-06-12 01:30:00,74.1,43.2,29.41,WNW,292,5.8,5.8,33,0.00,CLR,,0.00,WeatherDisplay:10.37,2013-06-11 22:30:00,
2013-06-12 01:33:00,73.9,43.0,29.41,WNW,292,5.8,5.8,33,0.00,CLR,,0.00,WeatherDisplay:10.37,2013-06-11 22:33:00,
2013-06-12 01:35:00,73.9,43.0,29.41,NNW,338,6.0,6.0,33,0.00,CLR,,0.00,WeatherDisplay:10.37,2013-06-11 22:35:00,
2013-06-12 01:37:00,73.8,42.9,29.41,WSW,248,5.4,5.4,33,0.00,CLR,,0.00,WeatherDisplay:10.37,2013-06-11 22:37:00,
2013-06-12 01:38:00,73.8,42.9,29.41,WNW,292,5.8,5.8,33,0.00,CLR,,0.00,WeatherDisplay:10.37,2013-06-11 22:38:00,
2013-06-12 01:40:00,73.8,42.9,29.44,WNW,286,6.0,8.0,33,0.00,CLR,,0.00,WeatherDisplay:10.37,2013-06-11 22:40:00,
2013-06-12 01:41:00,73.6,42.7,29.44,WNW,292,7.6,7.6,33,0.00,CLR,,0.00,WeatherDisplay:10.37,2013-06-11 22:41:00,
2013-06-12 01:42:00,73.6,42.7,29.44,WSW,248,9.2,9.2,33,0.00,CLR,,0.00,WeatherDisplay:10.37,2013-06-11 22:42:00,
2013-06-12 01:43:00,73.6,42.7,29.44,WNW,292,6.9,6.9,33,0.00,CLR,,0.00,WeatherDisplay:10.37,2013-06-11 22:43:00,
2013-06-12 01:45:00,73.6,42.7,29.44,WNW,292,6.2,6.2,33,0.00,CLR,,0.00,WeatherDisplay:10.37,2013-06-11 22:45:00,
2013-06-12 01:46:00,73.6,42.7,29.44,WNW,292,5.8,5.8,33,0.00,CLR,,0.00,WeatherDisplay:10.37,2013-06-11 22:46:00,
2013-06-12 01:47:00,73.6,42.7,29.44,WNW,292,5.8,5.8,33,0.00,CLR,,0.00,WeatherDisplay:10.37,2013-06-11 22:47:00,
2013-06-12 01:48:00,73.4,42.5,29.44,NNW,338,5.8,5.8,33,0.00,CLR,,0.00,WeatherDisplay:10.37,2013-06-11 22:48:00,
2013-06-12 01:50:00,73.4,42.5,29.44,West,270,5.8,5.8,33,0.00,CLR,,0.00,WeatherDisplay:10.37,2013-06-11 22:50:00,
2013-06-12 01:51:00,73.4,42.5,29.44,NNW,338,5.9,5.9,33,0.00,CLR,,0.00,WeatherDisplay:10.37,2013-06-11 22:51:00,
2013-06-12 01:52:00,73.4,42.5,29.44,NNW,338,6.0,6.0,33,0.00,CLR,,0.00,WeatherDisplay:10.37,2013-06-11 22:52:00,
2013-06-12 01:53:00,73.4,42.5,29.41,West,270,5.8,5.8,33,0.00,CLR,,0.00,WeatherDisplay:10.37,2013-06-11 22:53:00,
2013-06-12 01:54:00,73.4,42.5,29.41,WNW,292,3.5,3.5,33,0.00,CLR,,0.00,WeatherDisplay:10.37,2013-06-11 22:54:00,
2013-06-12 01:55:00,73.2,42.4,29.41,NNW,338,4.6,4.6,33,0.00,CLR,,0.00,WeatherDisplay:10.37,2013-06-11 22:55:00,
2013-06-12 01:56:00,73.2,42.4,29.41,NNW,338,4.6,4.6,33,0.00,CLR,,0.00,WeatherDisplay:10.37,2013-06-11 22:56:00,
2013-06-12 01:57:00,73.2,42.4,29.41,NW,315,4.5,4.5,33,0.00,CLR,,0.00,WeatherDisplay:10.37,2013-06-11 22:57:00,
2013-06-12 01:59:00,73.2,42.4,29.41,NW,315,4.6,4.6,33,0.00,CLR,,0.00,WeatherDisplay:10.37,2013-06-11 22:59:00,
2013-06-12 02:00:00,73.2,42.4,29.41,NW,315,5.8,5.8,33,0.00,CLR,,0.00,WeatherDisplay:10.37,2013-06-11 23:00:00,
2013-06-12 02:02:00,73.0,42.2,29.41,WNW,292,5.8,5.8,33,0.00,CLR,,0.00,WeatherDisplay:10.37,2013-06-11 23:02:00,
2013-06-12 02:03:00,73.0,42.2,29.41,NW,315,5.8,5.8,33,0.00,CLR,,0.00,WeatherDisplay:10.37,2013-06-11 23:03:00,
2013-06-12 02:04:00,73.0,43.0,29.41,WNW,292,3.5,3.5,34,0.00,CLR,,0.00,WeatherDisplay:10.37,2013-06-11 23:04:00,
2013-06-12 02:05:00,73.0,43.0,29.41,WNW,292,5.8,5.8,34,0.00,CLR,,0.00,WeatherDisplay:10.37,2013-06-11 23:05:00,
2013-06-12 02:07:00,72.9,42.8,29.41,WNW,292,2.3,2.3,34,0.00,CLR,,0.00,WeatherDisplay:10.37,2013-06-11 23:07:00,
2013-06-12 02:08:00,72.9,42.8,29.41,WNW,292,4.6,4.6,34,0.00,CLR,,0.00,WeatherDisplay:10.37,2013-06-11 23:08:00,
2013-06-12 02:09:00,72.9,42.8,29.41,WNW,292,4.6,4.6,34,0.00,CLR,,0.00,WeatherDisplay:10.37,2013-06-11 23:09:00,
2013-06-12 02:10:00,72.9,42.8,29.41,NNW,338,4.3,4.3,34,0.00,CLR,,0.00,WeatherDisplay:10.37,2013-06-11 23:10:00,
2013-06-12 02:12:00,72.9,42.8,29.41,NW,315,4.6,4.6,34,0.00,CLR,,0.00,WeatherDisplay:10.37,2013-06-11 23:12:00,
2013-06-12 02:13:00,72.9,42.8,29.41,NW,315,1.2,1.2,34,0.00,CLR,,0.00,WeatherDisplay:10.37,2013-06-11 23:13:00,
2013-06-12 02:14:00,72.9,42.8,29.41,NNW,338,0.0,0.0,34,0.00,CLR,,0.00,WeatherDisplay:10.37,2013-06-11 23:14:00,
2013-06-12 02:15:00,72.7,42.7,29.41,NW,315,0.9,0.0,34,0.00,CLR,,0.00,WeatherDisplay:10.37,2013-06-11 23:15:00,
2013-06-12 02:16:00,72.7,42.7,29.41,NNW,338,4.6,4.6,34,0.00,CLR,,0.00,WeatherDisplay:10.37,2013-06-11 23:16:00,
2013-06-12 02:17:00,72.7,42.7,29.41,NNW,338,5.8,5.8,34,0.00,CLR,,0.00,WeatherDisplay:10.37,2013-06-11 23:17:00,
2013-06-12 02:19:00,72.7,42.7,29.41,NNW,338,3.6,3.6,34,0.00,CLR,,0.00,WeatherDisplay:10.37,2013-06-11 23:19:00,
2013-06-12 02:20:00,72.7,42.7,29.41,NNW,329,3.0,6.0,34,0.00,CLR,,0.00,WeatherDisplay:10.37,2013-06-11 23:20:00,
2013-06-12 02:22:00,72.7,42.7,29.41,NNW,338,2.9,2.9,34,0.00,CLR,,0.00,WeatherDisplay:10.37,2013-06-11 23:22:00,
2013-06-12 02:24:00,72.7,42.7,29.44,NNW,338,4.6,4.6,34,0.00,CLR,,0.00,WeatherDisplay:10.37,2013-06-11 23:24:00,
2013-06-12 02:25:00,72.5,42.5,29.44,NNW,338,3.5,3.5,34,0.00,CLR,,0.00,WeatherDisplay:10.37,2013-06-11 23:25:00,
2013-06-12 02:27:00,72.5,42.5,29.44,NNW,338,2.3,2.3,34,0.00,CLR,,0.00,WeatherDisplay:10.37,2013-06-11 23:27:00,
2013-06-12 02:28:00,72.5,42.5,29.44,NNW,338,2.4,2.4,34,0.00,CLR,,0.00,WeatherDisplay:10.37,2013-06-11 23:28:00,
2013-06-12 02:29:00,72.5,42.5,29.44,NNW,338,3.5,3.5,34,0.00,CLR,,0.00,WeatherDisplay:10.37,2013-06-11 23:29:00,
2013-06-12 02:30:00,72.3,42.4,29.44,NNW,338,3.5,3.5,34,0.00,CLR,,0.00,WeatherDisplay:10.37,2013-06-11 23:30:00,
2013-06-12 02:32:00,72.3,42.4,29.44,NNW,338,2.3,2.3,34,0.00,CLR,,0.00,WeatherDisplay:10.37,2013-06-11 23:32:00,
2013-06-12 02:33:00,72.3,42.4,29.44,NNW,338,2.3,2.3,34,0.00,CLR,,0.00,WeatherDisplay:10.37,2013-06-11 23:33:00,
2013-06-12 02:34:00,72.3,42.4,29.44,NNW,338,2.9,2.9,34,0.00,CLR,,0.00,WeatherDisplay:10.37,2013-06-11 23:34:00,
2013-06-12 02:35:00,72.3,42.4,29.44,NNW,338,3.5,3.5,34,0.00,CLR,,0.00,WeatherDisplay:10.37,2013-06-11 23:35:00,
2013-06-12 02:37:00,72.3,42.4,29.44,NNW,338,4.0,4.0,34,0.00,CLR,,0.00,WeatherDisplay:10.37,2013-06-11 23:37:00,
2013-06-12 02:38:00,72.3,42.4,29.44,NNW,338,4.6,4.6,34,0.00,CLR,,0.00,WeatherDisplay:10.37,2013-06-11 23:38:00,
2013-06-12 02:39:00,72.3,42.4,29.44,NNW,338,4.6,4.6,34,0.00,CLR,,0.00,WeatherDisplay:10.37,2013-06-11 23:39:00,
2013-06-12 02:40:00,72.3,42.4,29.44,NNW,338,4.6,4.6,34,0.00,CLR,,0.00,WeatherDisplay:10.37,2013-06-11 23:40:00,
2013-06-12 02:41:00,72.3,42.4,29.44,North,0,4.6,4.6,34,0.00,CLR,,0.00,WeatherDisplay:10.37,2013-06-11 23:41:00,
2013-06-12 02:43:00,72.3,42.4,29.44,NNE,22,4.6,4.6,34,0.00,CLR,,0.00,WeatherDisplay:10.37,2013-06-11 23:43:00,
2013-06-12 02:44:00,72.1,42.2,29.44,North,0,3.1,3.3,34,0.00,CLR,,0.00,WeatherDisplay:10.37,2013-06-11 23:44:00,
2013-06-12 02:45:00,72.1,42.2,29.44,NNE,22,4.7,4.7,34,0.00,CLR,,0.00,WeatherDisplay:10.37,2013-06-11 23:45:00,
2013-06-12 02:46:00,72.1,42.2,29.44,NNE,22,4.6,4.6,34,0.00,CLR,,0.00,WeatherDisplay:10.37,2013-06-11 23:46:00,
2013-06-12 02:48:00,72.1,42.2,29.44,NNE,22,4.6,4.6,34,0.00,CLR,,0.00,WeatherDisplay:10.37,2013-06-11 23:48:00,
2013-06-12 02:49:00,72.1,42.2,29.44,North,0,4.0,4.0,34,0.00,CLR,,0.00,WeatherDisplay:10.37,2013-06-11 23:49:00,
2013-06-12 02:50:00,72.0,42.0,29.44,North,0,4.6,4.6,34,0.00,CLR,,0.00,WeatherDisplay:10.37,2013-06-11 23:50:00,
2013-06-12 02:51:00,72.0,42.0,29.44,North,0,3.5,3.5,34,0.00,CLR,,0.00,WeatherDisplay:10.37,2013-06-11 23:51:00,
2013-06-12 02:53:00,72.0,42.0,29.44,North,0,4.6,4.6,34,0.00,CLR,,0.00,WeatherDisplay:10.37,2013-06-11 23:53:00,
2013-06-12 02:54:00,72.0,42.0,29.47,NNW,338,3.5,3.5,34,0.00,CLR,,0.00,WeatherDisplay:10.37,2013-06-11 23:54:00,
2013-06-12 02:55:00,72.0,42.0,29.47,NNW,338,3.6,3.6,34,0.00,CLR,,0.00,WeatherDisplay:10.37,2013-06-11 23:55:00,
2013-06-12 02:57:00,72.0,42.0,29.47,NNW,338,2.3,2.4,34,0.00,CLR,,0.00,WeatherDisplay:10.37,2013-06-11 23:57:00,
2013-06-12 02:58:00,72.0,42.0,29.47,NNW,338,2.3,2.3,34,0.00,CLR,,0.00,WeatherDisplay:10.37,2013-06-11 23:58:00,
2013-06-12 02:59:00,72.0,42.0,29.47,NNW,338,2.3,2.3,34,0.00,CLR,,0.00,WeatherDisplay:10.37,2013-06-11 23:59:00,
2013-06-12 03:01:00,71.8,41.9,29.47,NW,315,3.8,3.8,34,0.00,CLR,,0.00,WeatherDisplay:10.37,2013-06-12 00:01:00,
2013-06-12 03:02:00,71.8,41.9,29.47,NNW,338,3.5,3.5,34,0.00,CLR,,0.00,WeatherDisplay:10.37,2013-06-12 00:02:00,
2013-06-12 03:03:00,71.8,41.9,29.47,North,0,4.0,4.0,34,0.00,CLR,,0.00,WeatherDisplay:10.37,2013-06-12 00:03:00,
2013-06-12 03:04:00,71.8,41.9,29.47,NNW,338,4.6,4.6,34,0.00,CLR,,0.00,WeatherDisplay:10.37,2013-06-12 00:04:00,
2013-06-12 03:05:00,71.8,41.9,29.47,NNW,338,2.3,2.3,34,0.00,CLR,,0.00,WeatherDisplay:10.37,2013-06-12 00:05:00,
2013-06-12 03:06:00,71.8,41.9,29.47,NNW,338,3.1,3.1,34,0.00,CLR,,0.00,WeatherDisplay:10.37,2013-06-12 00:06:00,
2013-06-12 03:08:00,71.8,41.9,29.47,NNW,338,3.5,3.5,34,0.00,CLR,,0.00,WeatherDisplay:10.37,2013-06-12 00:08:00,
2013-06-12 03:09:00,71.6,41.7,29.47,NNW,338,2.6,0.0,34,0.00,CLR,,0.00,WeatherDisplay:10.37,2013-06-12 00:09:00,
2013-06-12 03:10:00,71.6,41.7,29.47,NNW,338,2.3,0.0,34,0.00,CLR,,0.00,WeatherDisplay:10.37,2013-06-12 00:10:00,
2013-06-12 03:12:00,71.6,41.7,29.47,NNW,338,2.6,2.6,34,0.00,CLR,,0.00,WeatherDisplay:10.37,2013-06-12 00:12:00,
2013-06-12 03:13:00,71.6,41.7,29.47,NNW,338,3.5,3.5,34,0.00,CLR,,0.00,WeatherDisplay:10.37,2013-06-12 00:13:00,
2013-06-12 03:14:00,71.6,41.7,29.47,NNW,338,3.5,3.5,34,0.00,CLR,,0.00,WeatherDisplay:10.37,2013-06-12 00:14:00,
2013-06-12 03:15:00,71.6,41.7,29.47,NNW,338,3.5,3.5,34,0.00,CLR,,0.00,WeatherDisplay:10.37,2013-06-12 00:15:00,
2013-06-12 03:17:00,71.6,41.7,29.47,NNW,338,3.5,3.5,34,0.00,CLR,,0.00,WeatherDisplay:10.37,2013-06-12 00:17:00,
2013-06-12 03:18:00,71.6,41.7,29.47,NNW,338,2.3,2.3,34,0.00,CLR,,0.00,WeatherDisplay:10.37,2013-06-12 00:18:00,
2013-06-12 03:19:00,71.6,41.7,29.47,North,0,2.4,2.4,34,0.00,CLR,,0.00,WeatherDisplay:10.37,2013-06-12 00:19:00,
2013-06-12 03:20:00,71.4,41.6,29.47,North,0,2.6,2.6,34,0.00,CLR,,0.00,WeatherDisplay:10.37,2013-06-12 00:20:00,
2013-06-12 03:22:00,71.4,41.6,29.47,North,0,3.5,3.5,34,0.00,CLR,,0.00,WeatherDisplay:10.37,2013-06-12 00:22:00,
2013-06-12 03:23:00,71.4,41.6,29.47,North,0,3.5,3.5,34,0.00,CLR,,0.00,WeatherDisplay:10.37,2013-06-12 00:23:00,
2013-06-12 03:24:00,71.4,41.6,29.44,North,0,3.1,3.1,34,0.00,CLR,,0.00,WeatherDisplay:10.37,2013-06-12 00:24:00,
2013-06-12 03:25:00,71.4,41.6,29.44,North,0,3.5,3.5,34,0.00,CLR,,0.00,WeatherDisplay:10.37,2013-06-12 00:25:00,
2013-06-12 03:27:00,71.4,41.6,29.44,North,0,2.3,0.0,34,0.00,CLR,,0.00,WeatherDisplay:10.37,2013-06-12 00:27:00,
2013-06-12 03:28:00,71.2,41.4,29.44,North,0,0.0,0.0,34,0.00,CLR,,0.00,WeatherDisplay:10.37,2013-06-12 00:28:00,
2013-06-12 03:29:00,71.2,41.4,29.44,North,0,0.0,0.0,34,0.00,CLR,,0.00,WeatherDisplay:10.37,2013-06-12 00:29:00,
2013-06-12 03:30:00,71.2,41.4,29.44,NNW,338,0.0,0.0,34,0.00,CLR,,0.00,WeatherDisplay:10.37,2013-06-12 00:30:00,
2013-06-12 03:31:00,71.2,41.4,29.44,NNW,338,0.0,0.0,34,0.00,CLR,,0.00,WeatherDisplay:10.37,2013-06-12 00:31:00,
2013-06-12 03:33:00,71.2,41.4,29.44,NNW,338,4.6,4.6,34,0.00,CLR,,0.00,WeatherDisplay:10.37,2013-06-12 00:33:00,
2013-06-12 03:35:00,71.2,41.4,29.44,NNW,338,2.3,2.3,34,0.00,CLR,,0.00,WeatherDisplay:10.37,2013-06-12 00:35:00,
2013-06-12 03:36:00,71.2,41.4,29.44,NNW,338,1.2,1.4,34,0.00,CLR,,0.00,WeatherDisplay:10.37,2013-06-12 00:36:00,
2013-06-12 03:38:00,71.2,41.4,29.44,NNW,338,0.0,0.0,34,0.00,CLR,,0.00,WeatherDisplay:10.37,2013-06-12 00:38:00,
2013-06-12 03:40:00,71.2,41.4,29.44,NW,315,3.5,3.5,34,0.00,CLR,,0.00,WeatherDisplay:10.37,2013-06-12 00:40:00,
2013-06-12 03:41:00,71.2,41.4,29.44,NW,315,3.5,3.5,34,0.00,CLR,,0.00,WeatherDisplay:10.37,2013-06-12 00:41:00,
2013-06-12 03:42:00,71.2,41.4,29.44,NW,315,3.5,3.5,34,0.00,CLR,,0.00,WeatherDisplay:10.37,2013-06-12 00:42:00,
2013-06-12 03:44:00,71.2,41.4,29.44,NW,315,2.3,2.3,34,0.00,CLR,,0.00,WeatherDisplay:10.37,2013-06-12 00:44:00,
2013-06-12 03:45:00,71.2,41.4,29.44,NNW,338,3.5,3.5,34,0.00,CLR,,0.00,WeatherDisplay:10.37,2013-06-12 00:45:00,
2013-06-12 03:47:00,71.2,41.4,29.44,NNW,338,2.3,2.3,34,0.00,CLR,,0.00,WeatherDisplay:10.37,2013-06-12 00:47:00,
2013-06-12 03:49:00,71.2,41.4,29.44,NNW,338,3.5,3.5,34,0.00,CLR,,0.00,WeatherDisplay:10.37,2013-06-12 00:49:00,
2013-06-12 03:51:00,71.1,41.3,29.44,NNW,338,2.3,2.3,34,0.00,CLR,,0.00,WeatherDisplay:10.37,2013-06-12 00:51:00,
2013-06-12 03:52:00,71.1,41.3,29.44,NNW,338,2.3,2.3,34,0.00,CLR,,0.00,WeatherDisplay:10.37,2013-06-12 00:52:00,
2013-06-12 03:54:00,71.1,41.3,29.44,NNW,338,3.5,3.5,34,0.00,CLR,,0.00,WeatherDisplay:10.37,2013-06-12 00:54:00,
2013-06-12 03:56:00,71.1,41.3,29.44,North,0,3.5,3.5,34,0.00,CLR,,0.00,WeatherDisplay:10.37,2013-06-12 00:56:00,
2013-06-12 03:57:00,71.1,41.3,29.44,NNW,338,3.5,3.5,34,0.00,CLR,,0.00,WeatherDisplay:10.37,2013-06-12 00:57:00,
2013-06-12 03:58:00,71.1,41.3,29.44,NNW,338,3.5,3.5,34,0.00,CLR,,0.00,WeatherDisplay:10.37,2013-06-12 00:58:00,
2013-06-12 03:59:00,71.1,41.3,29.44,NNW,338,2.0,2.0,34,0.00,CLR,,0.00,WeatherDisplay:10.37,2013-06-12 00:59:00,
2013-06-12 04:01:00,70.9,41.1,29.44,NNW,338,2.4,2.4,34,0.00,CLR,,0.00,WeatherDisplay:10.37,2013-06-12 01:01:00,
2013-06-12 04:03:00,70.9,41.1,29.44,NNW,338,2.3,2.3,34,0.00,CLR,,0.00,WeatherDisplay:10.37,2013-06-12 01:03:00,
2013-06-12 04:04:00,70.9,41.1,29.44,NNW,338,2.3,0.0,34,0.00,CLR,,0.00,WeatherDisplay:10.37,2013-06-12 01:04:00,
2013-06-12 04:06:00,70.9,41.1,29.44,NNW,338,4.6,4.6,34,0.00,CLR,,0.00,WeatherDisplay:10.37,2013-06-12 01:06:00,
2013-06-12 04:08:00,70.9,41.1,29.44,North,0,3.5,3.5,34,0.00,CLR,,0.00,WeatherDisplay:10.37,2013-06-12 01:08:00,
2013-06-12 04:09:00,70.9,41.1,29.44,North,0,2.3,2.3,34,0.00,CLR,,0.00,WeatherDisplay:10.37,2013-06-12 01:09:00,
2013-06-12 04:12:00,70.9,41.1,29.44,North,0,2.3,2.3,34,0.00,CLR,,0.00,WeatherDisplay:10.37,2013-06-12 01:12:00,
2013-06-12 04:13:00,70.9,41.1,29.44,North,0,2.3,2.3,34,0.00,CLR,,0.00,WeatherDisplay:10.37,2013-06-12 01:13:00,
2013-06-12 04:14:00,70.7,40.9,29.44,NW,315,1.6,0.0,34,0.00,CLR,,0.00,WeatherDisplay:10.37,2013-06-12 01:14:00,
2013-06-12 04:15:00,70.7,40.9,29.44,NW,315,1.6,0.0,34,0.00,CLR,,0.00,WeatherDisplay:10.37,2013-06-12 01:15:00,
2013-06-12 04:17:00,70.7,40.9,29.44,NW,315,3.5,3.5,34,0.00,CLR,,0.00,WeatherDisplay:10.37,2013-06-12 01:17:00,
2013-06-12 04:18:00,70.7,40.9,29.44,NW,315,2.3,2.3,34,0.00,CLR,,0.00,WeatherDisplay:10.37,2013-06-12 01:18:00,
2013-06-12 04:20:00,70.7,41.7,29.44,WNW,292,3.3,3.3,35,0.00,CLR,,0.00,WeatherDisplay:10.37,2013-06-12 01:20:00,
2013-06-12 04:22:00,70.9,41.9,29.44,WNW,292,4.6,4.6,35,0.00,CLR,,0.00,WeatherDisplay:10.37,2013-06-12 01:22:00,
2013-06-12 04:23:00,70.9,41.9,29.44,WNW,292,2.3,2.3,35,0.00,CLR,,0.00,WeatherDisplay:10.37,2013-06-12 01:23:00,
2013-06-12 04:25:00,70.9,41.9,29.44,WNW,292,1.2,1.2,35,0.00,CLR,,0.00,WeatherDisplay:10.37,2013-06-12 01:25:00,
2013-06-12 04:27:00,70.7,41.7,29.44,WNW,292,3.5,3.5,35,0.00,CLR,,0.00,WeatherDisplay:10.37,2013-06-12 01:27:00,
2013-06-12 04:29:00,70.7,41.7,29.44,WNW,292,3.5,3.5,35,0.00,CLR,,0.00,WeatherDisplay:10.37,2013-06-12 01:29:00,
2013-06-12 04:30:00,70.7,41.7,29.44,WNW,292,3.5,3.5,35,0.00,CLR,,0.00,WeatherDisplay:10.37,2013-06-12 01:30:00,
2013-06-12 04:31:00,70.7,41.7,29.44,WNW,292,2.3,2.3,35,0.00,CLR,,0.00,WeatherDisplay:10.37,2013-06-12 01:31:00,
2013-06-12 04:32:00,70.5,41.5,29.44,WNW,292,1.6,0.0,35,0.00,CLR,,0.00,WeatherDisplay:10.37,2013-06-12 01:32:00,
2013-06-12 04:34:00,70.5,41.5,29.44,WNW,292,2.3,2.3,35,0.00,CLR,,0.00,WeatherDisplay:10.37,2013-06-12 01:34:00,
2013-06-12 04:35:00,70.5,41.5,29.44,WNW,292,4.6,0.0,35,0.00,CLR,,0.00,WeatherDisplay:10.37,2013-06-12 01:35:00,
2013-06-12 04:36:00,70.5,41.5,29.44,WNW,292,3.5,3.5,35,0.00,CLR,,0.00,WeatherDisplay:10.37,2013-06-12 01:36:00,
2013-06-12 04:37:00,70.5,41.5,29.44,West,270,3.6,3.6,35,0.00,CLR,,0.00,WeatherDisplay:10.37,2013-06-12 01:37:00,
2013-06-12 04:40:00,70.5,42.3,29.44,WNW,290,2.0,5.0,36,0.00,CLR,,0.00,WeatherDisplay:10.37,2013-06-12 01:40:00,
2013-06-12 04:41:00,70.3,42.1,29.44,NW,315,0.0,0.0,36,0.00,CLR,,0.00,WeatherDisplay:10.37,2013-06-12 01:41:00,
2013-06-12 04:42:00,70.3,42.1,29.44,NW,315,0.0,0.0,36,0.00,CLR,,0.00,WeatherDisplay:10.37,2013-06-12 01:42:00,
2013-06-12 04:45:00,70.3,42.1,29.44,NW,315,0.0,0.0,36,0.00,CLR,,0.00,WeatherDisplay:10.37,2013-06-12 01:45:00,
2013-06-12 04:46:00,70.3,42.1,29.44,WNW,292,0.0,0.0,36,0.00,CLR,,0.00,WeatherDisplay:10.37,2013-06-12 01:46:00,
2013-06-12 04:47:00,70.2,41.9,29.44,WNW,292,0.0,0.0,36,0.00,CLR,,0.00,WeatherDisplay:10.37,2013-06-12 01:47:00,
2013-06-12 04:50:00,70.2,41.9,29.44,NW,315,0.0,0.0,36,0.00,CLR,,0.00,WeatherDisplay:10.37,2013-06-12 01:50:00,
2013-06-12 04:51:00,70.2,41.9,29.44,NW,315,0.0,0.0,36,0.00,CLR,,0.00,WeatherDisplay:10.37,2013-06-12 01:51:00,
2013-06-12 04:52:00,70.2,41.9,29.44,NW,315,0.0,0.0,36,0.00,CLR,,0.00,WeatherDisplay:10.37,2013-06-12 01:52:00,
2013-06-12 04:53:00,70.2,41.9,29.44,NW,315,0.0,0.0,36,0.00,CLR,,0.00,WeatherDisplay:10.37,2013-06-12 01:53:00,
2013-06-12 04:56:00,70.0,41.8,29.44,NW,315,0.0,0.0,36,0.00,CLR,,0.00,WeatherDisplay:10.37,2013-06-12 01:56:00,
2013-06-12 04:57:00,70.0,41.8,29.44,NW,315,0.0,0.0,36,0.00,CLR,,0.00,WeatherDisplay:10.37,2013-06-12 01:57:00,
2013-06-12 04:58:00,69.8,41.6,29.44,NW,315,0.0,0.0,36,0.00,CLR,,0.00,WeatherDisplay:10.37,2013-06-12 01:58:00,
2013-06-12 05:01:00,69.8,41.6,29.44,NW,315,0.0,0.0,36,0.00,CLR,,0.00,WeatherDisplay:10.37,2013-06-12 02:01:00,
2013-06-12 05:02:00,69.8,41.6,29.44,NW,315,0.0,0.0,36,0.00,CLR,,0.00,WeatherDisplay:10.37,2013-06-12 02:02:00,
2013-06-12 05:03:00,69.8,41.6,29.44,NW,315,0.0,0.0,36,0.00,CLR,,0.00,WeatherDisplay:10.37,2013-06-12 02:03:00,
2013-06-12 05:06:00,69.8,41.6,29.44,NW,315,0.0,0.0,36,0.00,CLR,,0.00,WeatherDisplay:10.37,2013-06-12 02:06:00,
2013-06-12 05:07:00,69.8,42.3,29.44,NW,315,0.0,0.0,37,0.00,CLR,,0.00,WeatherDisplay:10.37,2013-06-12 02:07:00,
2013-06-12 05:08:00,69.8,42.3,29.44,NNW,338,0.0,0.0,37,0.00,CLR,,0.00,WeatherDisplay:10.37,2013-06-12 02:08:00,
2013-06-12 05:11:00,69.8,42.3,29.41,WNW,292,2.6,0.0,37,0.00,CLR,,0.00,WeatherDisplay:10.37,2013-06-12 02:11:00,
2013-06-12 05:12:00,69.8,42.3,29.41,WNW,292,3.5,3.5,37,0.00,CLR,,0.00,WeatherDisplay:10.37,2013-06-12 02:12:00,
2013-06-12 05:13:00,69.8,42.3,29.41,WNW,292,3.5,3.5,37,0.00,CLR,,0.00,WeatherDisplay:10.37,2013-06-12 02:13:00,
2013-06-12 05:16:00,70.0,42.5,29.41,WNW,292,2.3,0.0,37,0.00,CLR,,0.00,WeatherDisplay:10.37,2013-06-12 02:16:00,
2013-06-12 05:17:00,70.0,42.5,29.41,West,270,0.0,0.9,37,0.00,CLR,,0.00,WeatherDisplay:10.37,2013-06-12 02:17:00,
2013-06-12 05:18:00,70.0,42.5,29.41,West,270,2.3,2.3,37,0.00,CLR,,0.00,WeatherDisplay:10.37,2013-06-12 02:18:00,
2013-06-12 05:21:00,70.0,42.5,29.41,NW,315,0.0,0.0,37,0.00,CLR,,0.00,WeatherDisplay:10.37,2013-06-12 02:21:00,
2013-06-12 05:22:00,70.0,42.5,29.41,NW,315,3.3,0.0,37,0.00,CLR,,0.00,WeatherDisplay:10.37,2013-06-12 02:22:00,
2013-06-12 05:23:00,70.0,42.5,29.41,NNW,338,3.5,3.5,37,0.00,CLR,,0.00,WeatherDisplay:10.37,2013-06-12 02:23:00,
2013-06-12 05:26:00,70.0,43.2,29.44,NNW,338,2.3,2.3,38,0.00,CLR,,0.00,WeatherDisplay:10.37,2013-06-12 02:26:00,
2013-06-12 05:27:00,70.0,43.2,29.44,NNW,338,2.3,0.0,38,0.00,CLR,,0.00,WeatherDisplay:10.37,2013-06-12 02:27:00,
2013-06-12 05:28:00,69.8,43.0,29.44,NNW,338,2.4,0.0,38,0.00,CLR,,0.00,WeatherDisplay:10.37,2013-06-12 02:28:00,
2013-06-12 05:29:00,69.8,43.0,29.44,NNW,338,3.1,3.1,38,0.00,CLR,,0.00,WeatherDisplay:10.37,2013-06-12 02:29:00,
2013-06-12 05:31:00,69.8,43.0,29.44,NNW,338,2.3,2.3,38,0.00,CLR,,0.00,WeatherDisplay:10.37,2013-06-12 02:31:00,
2013-06-12 05:32:00,69.8,43.0,29.44,North,0,2.6,2.6,38,0.00,CLR,,0.00,WeatherDisplay:10.37,2013-06-12 02:32:00,
2013-06-12 05:33:00,69.8,43.0,29.44,NNE,22,4.0,4.0,38,0.00,CLR,,0.00,WeatherDisplay:10.37,2013-06-12 02:33:00,
2013-06-12 05:34:00,69.8,43.0,29.44,North,0,4.6,4.6,38,0.00,CLR,,0.00,WeatherDisplay:10.37,2013-06-12 02:34:00,
2013-06-12 05:36:00,69.8,43.0,29.44,NNE,22,0.0,0.0,38,0.00,CLR,,0.00,WeatherDisplay:10.37,2013-06-12 02:36:00,
2013-06-12 05:38:00,69.8,43.0,29.44,North,0,0.0,0.0,38,0.00,CLR,,0.00,WeatherDisplay:10.37,2013-06-12 02:38:00,
2013-06-12 05:39:00,69.8,43.0,29.44,North,0,1.2,0.0,38,0.00,CLR,,0.00,WeatherDisplay:10.37,2013-06-12 02:39:00,
2013-06-12 05:41:00,69.8,43.0,29.44,NW,315,0.0,0.0,38,0.00,CLR,,0.00,WeatherDisplay:10.37,2013-06-12 02:41:00,
2013-06-12 05:43:00,69.8,43.0,29.44,WNW,292,2.2,0.0,38,0.00,CLR,,0.00,WeatherDisplay:10.37,2013-06-12 02:43:00,
2013-06-12 05:44:00,69.8,43.0,29.44,WNW,292,2.3,2.3,38,0.00,CLR,,0.00,WeatherDisplay:10.37,2013-06-12 02:44:00,
2013-06-12 05:47:00,69.6,43.6,29.44,NW,315,2.3,2.3,39,0.00,CLR,,0.00,WeatherDisplay:10.37,2013-06-12 02:47:00,
2013-06-12 05:48:00,69.8,43.7,29.44,WNW,292,2.3,2.3,39,0.00,CLR,,0.00,WeatherDisplay:10.37,2013-06-12 02:48:00,
2013-06-12 05:49:00,69.8,43.7,29.44,WNW,292,2.3,2.3,39,0.00,CLR,,0.00,WeatherDisplay:10.37,2013-06-12 02:49:00,
2013-06-12 05:52:00,69.8,44.4,29.44,North,0,6.9,6.9,40,0.00,CLR,,0.00,WeatherDisplay:10.37,2013-06-12 02:52:00,
2013-06-12 05:53:00,70.0,45.2,29.44,NNE,22,7.1,7.1,41,0.00,CLR,,0.00,WeatherDisplay:10.37,2013-06-12 02:53:00,
2013-06-12 05:54:00,70.0,45.2,29.44,NNW,338,6.9,6.9,41,0.00,CLR,,0.00,WeatherDisplay:10.37,2013-06-12 02:54:00,
2013-06-12 05:55:00,70.2,45.4,29.44,NNW,338,5.8,5.8,41,0.00,CLR,,0.00,WeatherDisplay:10.37,2013-06-12 02:55:00,
2013-06-12 05:57:00,70.2,44.7,29.44,North,0,4.6,4.6,40,0.00,CLR,,0.00,WeatherDisplay:10.37,2013-06-12 02:57:00,
2013-06-12 05:58:00,70.2,44.7,29.44,NNW,338,4.6,4.6,40,0.00,CLR,,0.00,WeatherDisplay:10.37,2013-06-12 02:58:00,
2013-06-12 05:59:00,70.2,44.7,29.44,NNW,338,4.6,4.6,40,0.00,CLR,,0.00,WeatherDisplay:10.37,2013-06-12 02:59:00,
2013-06-12 06:00:00,70.2,44.7,29.44,North,0,4.6,4.6,40,0.00,CLR,,0.00,WeatherDisplay:10.37,2013-06-12 03:00:00,
2013-06-12 06:03:00,70.2,44.7,29.44,NNW,338,4.6,4.6,40,0.00,CLR,,0.00,WeatherDisplay:10.37,2013-06-12 03:03:00,
2013-06-12 06:04:00,70.2,44.7,29.44,North,0,4.6,4.6,40,0.00,CLR,,0.00,WeatherDisplay:10.37,2013-06-12 03:04:00,
2013-06-12 06:06:00,70.2,44.7,29.44,North,0,4.9,4.9,40,0.00,CLR,,0.00,WeatherDisplay:10.37,2013-06-12 03:06:00,
2013-06-12 06:08:00,70.2,44.7,29.44,NNW,338,4.6,4.6,40,0.00,CLR,,0.00,WeatherDisplay:10.37,2013-06-12 03:08:00,
2013-06-12 06:09:00,70.2,44.7,29.44,NNW,338,4.6,4.6,40,0.00,CLR,,0.00,WeatherDisplay:10.37,2013-06-12 03:09:00,
2013-06-12 06:11:00,70.2,44.7,29.44,NNE,22,4.0,4.0,40,0.00,CLR,,0.00,WeatherDisplay:10.37,2013-06-12 03:11:00,
2013-06-12 06:13:00,70.2,44.0,29.44,NNE,22,3.5,3.5,39,0.00,CLR,,0.00,WeatherDisplay:10.37,2013-06-12 03:13:00,
2013-06-12 06:14:00,70.2,44.0,29.44,NNW,338,4.6,4.6,39,0.00,CLR,,0.00,WeatherDisplay:10.37,2013-06-12 03:14:00,
2013-06-12 06:15:00,70.2,44.0,29.44,NNW,338,3.5,3.5,39,0.00,CLR,,0.00,WeatherDisplay:10.37,2013-06-12 03:15:00,
2013-06-12 06:17:00,70.2,44.0,29.44,NNW,338,3.5,3.5,39,0.00,CLR,,0.00,WeatherDisplay:10.37,2013-06-12 03:17:00,
2013-06-12 06:19:00,70.2,44.0,29.44,NNW,338,3.5,3.5,39,0.00,CLR,,0.00,WeatherDisplay:10.37,2013-06-12 03:19:00,
2013-06-12 06:20:00,70.2,44.0,29.44,NNW,338,2.3,2.3,39,0.00,CLR,,0.00,WeatherDisplay:10.37,2013-06-12 03:20:00,
2013-06-12 06:22:00,70.2,44.7,29.44,NNW,338,4.6,4.6,40,0.00,CLR,,0.00,WeatherDisplay:10.37,2013-06-12 03:22:00,
2013-06-12 06:24:00,70.2,44.7,29.44,NNW,338,4.6,4.6,40,0.00,CLR,,0.00,WeatherDisplay:10.37,2013-06-12 03:24:00,
2013-06-12 06:25:00,70.2,44.7,29.44,North,0,4.6,4.6,40,0.00,CLR,,0.00,WeatherDisplay:10.37,2013-06-12 03:25:00,
2013-06-12 06:27:00,70.3,44.9,29.44,NNW,338,2.3,2.3,40,0.00,CLR,,0.00,WeatherDisplay:10.37,2013-06-12 03:27:00,
2013-06-12 06:29:00,70.3,44.9,29.44,NNW,338,2.4,2.4,40,0.00,CLR,,0.00,WeatherDisplay:10.37,2013-06-12 03:29:00,
2013-06-12 06:30:00,70.3,44.9,29.44,NNW,338,2.3,2.3,40,0.00,CLR,,0.00,WeatherDisplay:10.37,2013-06-12 03:30:00,
2013-06-12 06:32:00,70.3,44.9,29.44,NNW,338,2.3,2.3,40,0.00,CLR,,0.00,WeatherDisplay:10.37,2013-06-12 03:32:00,
2013-06-12 06:34:00,70.5,45.0,29.44,NNW,338,2.3,2.3,40,0.00,CLR,,0.00,WeatherDisplay:10.37,2013-06-12 03:34:00,
2013-06-12 06:35:00,70.5,45.0,29.44,NNW,338,2.3,2.3,40,0.00,CLR,,0.00,WeatherDisplay:10.37,2013-06-12 03:35:00,
2013-06-12 06:38:00,70.5,45.0,29.44,NNW,338,0.0,0.0,40,0.00,CLR,,0.00,WeatherDisplay:10.37,2013-06-12 03:38:00,
2013-06-12 06:39:00,70.5,45.0,29.44,NNW,338,0.0,0.0,40,0.00,CLR,,0.00,WeatherDisplay:10.37,2013-06-12 03:39:00,
2013-06-12 06:40:00,70.5,45.0,29.44,NNW,338,0.0,0.0,40,0.00,CLR,,0.00,WeatherDisplay:10.37,2013-06-12 03:40:00,
2013-06-12 06:41:00,70.5,45.0,29.44,NNW,338,2.2,0.0,40,0.00,CLR,,0.00,WeatherDisplay:10.37,2013-06-12 03:41:00,
2013-06-12 06:43:00,70.7,45.2,29.44,NNW,338,2.6,2.6,40,0.00,CLR,,0.00,WeatherDisplay:10.37,2013-06-12 03:43:00,
2013-06-12 06:44:00,70.7,45.2,29.44,NNW,338,2.3,2.3,40,0.00,CLR,,0.00,WeatherDisplay:10.37,2013-06-12 03:44:00,
2013-06-12 06:45:00,70.7,45.2,29.44,NNW,338,2.3,2.3,40,0.00,CLR,,0.00,WeatherDisplay:10.37,2013-06-12 03:45:00,
2013-06-12 06:46:00,70.7,45.2,29.44,NNW,338,2.3,2.9,40,0.00,CLR,,0.00,WeatherDisplay:10.37,2013-06-12 03:46:00,
2013-06-12 06:48:00,70.9,45.3,29.44,NNW,338,2.3,0.0,40,0.00,CLR,,0.00,WeatherDisplay:10.37,2013-06-12 03:48:00,
2013-06-12 06:49:00,70.9,45.3,29.44,NW,315,3.6,3.6,40,0.00,CLR,,0.00,WeatherDisplay:10.37,2013-06-12 03:49:00,
2013-06-12 06:50:00,70.9,45.3,29.44,NNW,336,1.0,5.0,40,0.00,CLR,,0.00,WeatherDisplay:10.37,2013-06-12 03:50:00,
2013-06-12 06:51:00,70.9,45.3,29.44,NW,315,3.5,3.5,40,0.00,CLR,,0.00,WeatherDisplay:10.37,2013-06-12 03:51:00,
2013-06-12 06:53:00,71.2,45.7,29.44,WNW,292,2.3,2.3,40,0.00,CLR,,0.00,WeatherDisplay:10.37,2013-06-12 03:53:00,
2013-06-12 06:54:00,71.4,45.8,29.44,WNW,292,1.2,0.0,40,0.00,CLR,,0.00,WeatherDisplay:10.37,2013-06-12 03:54:00,
2013-06-12 06:55:00,71.4,45.8,29.44,WNW,292,1.4,0.0,40,0.00,CLR,,0.00,WeatherDisplay:10.37,2013-06-12 03:55:00,
2013-06-12 06:56:00,71.4,45.8,29.44,WNW,292,1.2,0.0,40,0.00,CLR,,0.00,WeatherDisplay:10.37,2013-06-12 03:56:00,
2013-06-12 06:57:00,71.8,46.2,29.44,WNW,292,2.3,2.3,40,0.00,CLR,,0.00,WeatherDisplay:10.37,2013-06-12 03:57:00,
2013-06-12 06:58:00,72.1,46.5,29.44,NNW,338,2.4,2.4,40,0.00,CLR,,0.00,WeatherDisplay:10.37,2013-06-12 03:58:00,
2013-06-12 06:59:00,72.5,46.8,29.44,NNW,338,2.3,2.3,40,0.00,CLR,,0.00,WeatherDisplay:10.37,2013-06-12 03:59:00,
2013-06-12 07:00:00,72.5,46.8,29.44,NNW,338,2.3,2.3,40,0.00,CLR,,0.00,WeatherDisplay:10.37,2013-06-12 04:00:00,
2013-06-12 07:01:00,72.5,46.8,29.44,NNW,338,2.4,2.4,40,0.00,CLR,,0.00,WeatherDisplay:10.37,2013-06-12 04:01:00,
2013-06-12 07:06:00,72.7,45.6,29.44,NW,315,0.0,0.0,38,0.00,CLR,,0.00,WeatherDisplay:10.37,2013-06-12 04:06:00,
2013-06-12 07:07:00,72.7,45.6,29.44,WNW,292,3.5,3.5,38,0.00,CLR,,0.00,WeatherDisplay:10.37,2013-06-12 04:07:00,
2013-06-12 07:11:00,72.5,44.7,29.47,WNW,292,1.6,0.0,37,0.00,CLR,,0.00,WeatherDisplay:10.37,2013-06-12 04:11:00,
2013-06-12 07:12:00,72.5,44.7,29.47,WNW,292,1.2,1.2,37,0.00,CLR,,0.00,WeatherDisplay:10.37,2013-06-12 04:12:00,
2013-06-12 07:16:00,72.3,44.6,29.47,NNW,338,3.5,3.5,37,0.00,CLR,,0.00,WeatherDisplay:10.37,2013-06-12 04:16:00,
2013-06-12 07:17:00,72.3,44.6,29.47,NNW,338,4.6,4.6,37,0.00,CLR,,0.00,WeatherDisplay:10.37,2013-06-12 04:17:00,
2013-06-12 07:21:00,72.3,45.3,29.47,NNW,338,3.5,3.5,38,0.00,CLR,,0.00,WeatherDisplay:10.37,2013-06-12 04:21:00,
2013-06-12 07:22:00,72.5,45.4,29.47,NW,315,3.5,3.5,38,0.00,CLR,,0.00,WeatherDisplay:10.37,2013-06-12 04:22:00,
2013-06-12 07:27:00,74.3,47.0,29.44,WNW,292,3.5,3.5,38,0.00,CLR,,0.00,WeatherDisplay:10.37,2013-06-12 04:27:00,
2013-06-12 07:28:00,74.3,47.0,29.44,NW,315,3.6,0.0,38,0.00,CLR,,0.00,WeatherDisplay:10.37,2013-06-12 04:28:00,
2013-06-12 07:32:00,74.8,46.1,29.44,NW,315,5.8,5.8,36,0.00,CLR,,0.00,WeatherDisplay:10.37,2013-06-12 04:32:00,
2013-06-12 07:33:00,74.8,46.1,29.44,WNW,292,5.8,5.8,36,0.00,CLR,,0.00,WeatherDisplay:10.37,2013-06-12 04:33:00,
2013-06-12 07:37:00,76.1,46.5,29.44,WNW,292,2.3,2.3,35,0.00,CLR,,0.00,WeatherDisplay:10.37,2013-06-12 04:37:00,
2013-06-12 07:38:00,76.1,46.5,29.44,WNW,292,2.3,2.3,35,0.00,CLR,,0.00,WeatherDisplay:10.37,2013-06-12 04:38:00,
2013-06-12 07:43:00,77.2,46.6,29.47,West,270,2.3,3.3,34,0.00,CLR,,0.00,WeatherDisplay:10.37,2013-06-12 04:43:00,
2013-06-12 07:48:00,77.2,45.8,29.47,WNW,292,5.8,5.8,33,0.00,CLR,,0.00,WeatherDisplay:10.37,2013-06-12 04:48:00,
2013-06-12 07:49:00,77.0,44.9,29.47,NNW,338,6.9,6.9,32,0.00,CLR,,0.00,WeatherDisplay:10.37,2013-06-12 04:49:00,
2013-06-12 07:53:00,76.5,45.2,29.47,WNW,292,3.5,3.5,33,0.00,CLR,,0.00,WeatherDisplay:10.37,2013-06-12 04:53:00,
2013-06-12 07:54:00,76.6,45.4,29.47,NW,315,3.5,3.5,33,0.00,CLR,,0.00,WeatherDisplay:10.37,2013-06-12 04:54:00,
2013-06-12 07:55:00,76.8,45.5,29.47,NW,315,4.6,4.6,33,0.00,CLR,,0.00,WeatherDisplay:10.37,2013-06-12 04:55:00,
2013-06-12 07:58:00,76.6,45.4,29.47,WNW,292,4.6,4.6,33,0.00,CLR,,0.00,WeatherDisplay:10.37,2013-06-12 04:58:00,
2013-06-12 07:59:00,76.3,45.1,29.47,NW,315,5.8,5.8,33,0.00,CLR,,0.00,WeatherDisplay:10.37,2013-06-12 04:59:00,
2013-06-12 08:00:00,75.7,44.6,29.47,WNW,292,5.8,5.8,33,0.00,CLR,,0.00,WeatherDisplay:10.37,2013-06-12 05:00:00,
2013-06-12 08:03:00,75.4,44.3,29.47,West,270,5.8,5.8,33,0.00,CLR,,0.00,WeatherDisplay:10.37,2013-06-12 05:03:00,
2013-06-12 08:04:00,75.2,44.1,29.47,WSW,248,5.9,5.9,33,0.00,CLR,,0.00,WeatherDisplay:10.37,2013-06-12 05:04:00,
2013-06-12 08:06:00,75.0,44.7,29.47,West,270,5.8,5.8,34,0.00,CLR,,0.00,WeatherDisplay:10.37,2013-06-12 05:06:00,
2013-06-12 08:08:00,74.8,44.6,29.47,WSW,248,4.6,4.6,34,0.00,CLR,,0.00,WeatherDisplay:10.37,2013-06-12 05:08:00,
2013-06-12 08:09:00,74.8,44.6,29.47,WNW,292,4.6,4.6,34,0.00,CLR,,0.00,WeatherDisplay:10.37,2013-06-12 05:09:00,
2013-06-12 08:12:00,75.4,45.1,29.47,WNW,292,6.0,6.0,34,0.00,CLR,,0.00,WeatherDisplay:10.37,2013-06-12 05:12:00,
2013-06-12 08:13:00,75.6,44.4,29.47,West,270,5.9,5.9,33,0.00,CLR,,0.00,WeatherDisplay:10.37,2013-06-12 05:13:00,
2013-06-12 08:14:00,75.7,44.6,29.47,WNW,292,6.2,6.2,33,0.00,CLR,,0.00,WeatherDisplay:10.37,2013-06-12 05:14:00,
2013-06-12 08:18:00,77.0,44.9,29.47,North,0,4.6,4.6,32,0.00,CLR,,0.00,WeatherDisplay:10.37,2013-06-12 05:18:00,
2013-06-12 08:19:00,77.2,45.0,29.47,WNW,292,5.8,5.8,32,0.00,CLR,,0.00,WeatherDisplay:10.37,2013-06-12 05:19:00,
2013-06-12 08:20:00,77.2,45.0,29.47,WNW,292,5.8,5.8,32,0.00,CLR,,0.00,WeatherDisplay:10.37,2013-06-12 05:20:00,
2013-06-12 08:23:00,78.1,45.8,29.47,West,270,3.6,3.6,32,0.00,CLR,,0.00,WeatherDisplay:10.37,2013-06-12 05:23:00,
2013-06-12 08:24:00,77.5,45.3,29.47,WNW,292,6.9,6.9,32,0.00,CLR,,0.00,WeatherDisplay:10.37,2013-06-12 05:24:00,
2013-06-12 08:25:00,77.5,45.3,29.47,NNW,338,6.9,6.9,32,0.00,CLR,,0.00,WeatherDisplay:10.37,2013-06-12 05:25:00,
2013-06-12 08:28:00,77.5,45.3,29.47,WNW,292,5.8,5.8,32,0.00,CLR,,0.00,WeatherDisplay:10.37,2013-06-12 05:28:00,
2013-06-12 08:29:00,77.5,45.3,29.47,NNW,338,5.8,5.8,32,0.00,CLR,,0.00,WeatherDisplay:10.37,2013-06-12 05:29:00,
2013-06-12 08:30:00,77.5,45.3,29.47,WNW,294,3.0,6.0,32,0.00,CLR,,0.00,WeatherDisplay:10.37,2013-06-12 05:30:00,
2013-06-12 08:33:00,76.8,45.5,29.47,WSW,248,4.6,4.6,33,0.00,CLR,,0.00,WeatherDisplay:10.37,2013-06-12 05:33:00,
2013-06-12 08:34:00,76.6,45.4,29.47,WNW,292,3.5,3.5,33,0.00,CLR,,0.00,WeatherDisplay:10.37,2013-06-12 05:34:00,
2013-06-12 08:35:00,76.7,45.4,29.47,WNW,287,2.0,5.0,33,0.00,CLR,,0.00,WeatherDisplay:10.37,2013-06-12 05:35:00,
2013-06-12 08:36:00,76.5,45.2,29.47,WSW,248,3.6,4.9,33,0.00,CLR,,0.00,WeatherDisplay:10.37,2013-06-12 05:36:00,
2013-06-12 08:38:00,76.1,44.9,29.47,West,270,6.9,6.9,33,0.00,CLR,,0.00,WeatherDisplay:10.37,2013-06-12 05:38:00,
2013-06-12 08:39:00,76.3,45.1,29.47,NW,315,6.9,6.9,33,0.00,CLR,,0.00,WeatherDisplay:10.37,2013-06-12 05:39:00,
2013-06-12 08:40:00,76.3,45.1,29.47,West,270,3.8,3.8,33,0.00,CLR,,0.00,WeatherDisplay:10.37,2013-06-12 05:40:00,
2013-06-12 08:41:00,76.3,45.1,29.47,WNW,292,4.6,4.6,33,0.00,CLR,,0.00,WeatherDisplay:10.37,2013-06-12 05:41:00,
2013-06-12 08:44:00,76.8,45.5,29.47,West,270,3.6,3.6,33,0.00,CLR,,0.00,WeatherDisplay:10.37,2013-06-12 05:44:00,
2013-06-12 08:45:00,77.2,45.8,29.47,West,270,4.6,4.6,33,0.00,CLR,,0.00,WeatherDisplay:10.37,2013-06-12 05:45:00,
2013-06-12 08:46:00,77.4,46.0,29.47,WNW,292,4.3,4.3,33,0.00,CLR,,0.00,WeatherDisplay:10.37,2013-06-12 05:46:00,
2013-06-12 08:49:00,78.3,46.8,29.47,WNW,292,5.8,5.8,33,0.00,CLR,,0.00,WeatherDisplay:10.37,2013-06-12 05:49:00,
2013-06-12 08:50:00,78.3,46.8,29.47,WNW,292,5.8,5.8,33,0.00,CLR,,0.00,WeatherDisplay:10.37,2013-06-12 05:50:00,
2013-06-12 08:51:00,79.0,46.6,29.47,WSW,248,5.8,5.8,32,0.00,CLR,,0.00,WeatherDisplay:10.37,2013-06-12 05:51:00,
2013-06-12 08:52:00,79.7,47.2,29.47,WNW,292,4.6,4.6,32,0.00,CLR,,0.00,WeatherDisplay:10.37,2013-06-12 05:52:00,
2013-06-12 08:54:00,80.1,47.5,29.47,WSW,248,6.2,6.2,32,0.00,CLR,,0.00,WeatherDisplay:10.37,2013-06-12 05:54:00,
2013-06-12 08:55:00,80.2,47.6,29.47,West,271,2.0,6.0,32,0.00,CLR,,0.00,WeatherDisplay:10.37,2013-06-12 05:55:00,
2013-06-12 08:56:00,79.9,47.4,29.47,WSW,248,5.8,5.8,32,0.00,CLR,,0.00,WeatherDisplay:10.37,2013-06-12 05:56:00,
2013-06-12 08:57:00,79.7,47.2,29.47,SW,225,6.9,6.9,32,0.00,CLR,,0.00,WeatherDisplay:10.37,2013-06-12 05:57:00,
2013-06-12 09:00:00,78.8,46.4,29.47,WSW,248,5.8,5.8,32,0.00,CLR,,0.00,WeatherDisplay:10.37,2013-06-12 06:00:00,
2013-06-12 09:01:00,78.8,46.4,29.47,WSW,248,5.8,5.8,32,0.00,CLR,,0.00,WeatherDisplay:10.37,2013-06-12 06:01:00,
2013-06-12 09:02:00,78.6,46.3,29.47,WSW,248,3.5,3.5,32,0.00,CLR,,0.00,WeatherDisplay:10.37,2013-06-12 06:02:00,
2013-06-12 09:05:00,79.3,46.9,29.47,WSW,246,3.0,5.0,32,0.00,CLR,,0.00,WeatherDisplay:10.37,2013-06-12 06:05:00,
2013-06-12 09:06:00,79.3,46.9,29.47,West,270,3.5,3.5,32,0.00,CLR,,0.00,WeatherDisplay:10.37,2013-06-12 06:06:00,
2013-06-12 09:08:00,80.6,47.2,29.47,WSW,248,4.6,4.6,31,0.00,CLR,,0.00,WeatherDisplay:10.37,2013-06-12 06:08:00,
2013-06-12 09:10:00,81.3,47.8,29.47,WNW,292,4.5,4.5,31,0.00,CLR,,0.00,WeatherDisplay:10.37,2013-06-12 06:10:00,
2013-06-12 09:11:00,81.5,47.9,29.47,SW,225,4.6,4.6,31,0.00,CLR,,0.00,WeatherDisplay:10.37,2013-06-12 06:11:00,
2013-06-12 09:12:00,81.5,47.9,29.47,WSW,248,4.6,4.6,31,0.00,CLR,,0.00,WeatherDisplay:10.37,2013-06-12 06:12:00,
2013-06-12 09:13:00,81.7,48.1,29.47,WSW,248,4.6,4.6,31,0.00,CLR,,0.00,WeatherDisplay:10.37,2013-06-12 06:13:00,
2013-06-12 09:15:00,81.7,48.1,29.47,SW,225,4.6,4.6,31,0.00,CLR,,0.00,WeatherDisplay:10.37,2013-06-12 06:15:00,
2013-06-12 09:17:00,82.0,48.4,29.47,WSW,248,4.6,4.6,31,0.00,CLR,,0.00,WeatherDisplay:10.37,2013-06-12 06:17:00,
2013-06-12 09:18:00,82.0,47.5,29.47,WSW,248,4.6,4.6,30,0.00,CLR,,0.00,WeatherDisplay:10.37,2013-06-12 06:18:00,
2013-06-12 09:20:00,82.6,48.0,29.47,SW,225,3.5,3.5,30,0.00,CLR,,0.00,WeatherDisplay:10.37,2013-06-12 06:20:00,
2013-06-12 09:22:00,82.8,48.2,29.47,WSW,248,6.9,6.9,30,0.00,CLR,,0.00,WeatherDisplay:10.37,2013-06-12 06:22:00,
2013-06-12 09:24:00,82.6,48.0,29.47,NW,315,4.6,4.6,30,0.00,CLR,,0.00,WeatherDisplay:10.37,2013-06-12 06:24:00,
2013-06-12 09:25:00,83.1,48.5,29.47,West,270,2.3,2.3,30,0.00,CLR,,0.00,WeatherDisplay:10.37,2013-06-12 06:25:00,
2013-06-12 09:27:00,83.1,48.5,29.47,WSW,248,6.4,6.4,30,0.00,CLR,,0.00,WeatherDisplay:10.37,2013-06-12 06:27:00,
2013-06-12 09:28:00,82.8,45.4,29.47,West,270,8.1,8.1,27,0.00,CLR,,0.00,WeatherDisplay:10.37,2013-06-12 06:28:00,
2013-06-12 09:29:00,82.4,45.1,29.47,WNW,292,5.8,5.8,27,0.00,CLR,,0.00,WeatherDisplay:10.37,2013-06-12 06:29:00,
2013-06-12 09:30:00,82.4,45.1,29.47,WNW,292,5.8,5.8,27,0.00,CLR,,0.00,WeatherDisplay:10.37,2013-06-12 06:30:00,
2013-06-12 09:32:00,83.3,45.8,29.47,WNW,292,5.8,5.8,27,0.00,CLR,,0.00,WeatherDisplay:10.37,2013-06-12 06:32:00,
2013-06-12 09:33:00,83.3,45.8,29.47,North,0,4.6,4.6,27,0.00,CLR,,0.00,WeatherDisplay:10.37,2013-06-12 06:33:00,
2013-06-12 09:34:00,83.1,45.7,29.47,WSW,248,3.5,3.5,27,0.00,CLR,,0.00,WeatherDisplay:10.37,2013-06-12 06:34:00,
2013-06-12 09:35:00,82.6,45.2,29.47,WSW,248,5.8,5.8,27,0.00,CLR,,0.00,WeatherDisplay:10.37,2013-06-12 06:35:00,
2013-06-12 09:37:00,82.8,45.4,29.47,WSW,248,4.6,4.6,27,0.00,CLR,,0.00,WeatherDisplay:10.37,2013-06-12 06:37:00,
2013-06-12 09:38:00,82.9,45.5,29.47,SSW,202,5.8,5.8,27,0.00,CLR,,0.00,WeatherDisplay:10.37,2013-06-12 06:38:00,
2013-06-12 09:39:00,83.1,45.7,29.47,NW,315,5.6,5.6,27,0.00,CLR,,0.00,WeatherDisplay:10.37,2013-06-12 06:39:00,
2013-06-12 09:40:00,83.1,45.7,29.47,WNW,292,5.8,5.8,27,0.00,CLR,,0.00,WeatherDisplay:10.37,2013-06-12 06:40:00,
2013-06-12 09:42:00,83.1,45.7,29.47,WSW,248,5.8,5.8,27,0.00,CLR,,0.00,WeatherDisplay:10.37,2013-06-12 06:42:00,
2013-06-12 09:43:00,82.6,48.0,29.47,SW,225,5.6,5.6,30,0.00,CLR,,0.00,WeatherDisplay:10.37,2013-06-12 06:43:00,
2013-06-12 09:44:00,82.6,48.0,29.47,WSW,248,5.9,5.9,30,0.00,CLR,,0.00,WeatherDisplay:10.37,2013-06-12 06:44:00,
2013-06-12 09:46:00,80.6,46.3,29.47,WSW,248,5.9,5.9,30,0.00,CLR,,0.00,WeatherDisplay:10.37,2013-06-12 06:46:00,
2013-06-12 09:47:00,80.1,46.7,29.47,West,270,6.9,6.9,31,0.00,CLR,,0.00,WeatherDisplay:10.37,2013-06-12 06:47:00,
2013-06-12 09:48:00,79.9,46.5,29.47,SSW,202,5.8,5.8,31,0.00,CLR,,0.00,WeatherDisplay:10.37,2013-06-12 06:48:00,
2013-06-12 09:49:00,79.9,46.5,29.47,West,270,5.8,5.8,31,0.00,CLR,,0.00,WeatherDisplay:10.37,2013-06-12 06:49:00,
2013-06-12 09:52:00,81.3,47.8,29.47,West,270,3.5,3.5,31,0.00,CLR,,0.00,WeatherDisplay:10.37,2013-06-12 06:52:00,
2013-06-12 09:53:00,82.0,48.4,29.47,WSW,248,3.5,3.5,31,0.00,CLR,,0.00,WeatherDisplay:10.37,2013-06-12 06:53:00,
2013-06-12 09:54:00,81.7,47.2,29.47,West,270,4.6,4.6,30,0.00,CLR,,0.00,WeatherDisplay:10.37,2013-06-12 06:54:00,
2013-06-12 09:57:00,81.0,46.6,29.47,WSW,248,4.6,4.6,30,0.00,CLR,,0.00,WeatherDisplay:10.37,2013-06-12 06:57:00,
2013-06-12 09:58:00,81.0,46.6,29.47,WNW,292,6.0,6.0,30,0.00,CLR,,0.00,WeatherDisplay:10.37,2013-06-12 06:58:00,
2013-06-12 09:59:00,80.6,46.3,29.47,WSW,248,6.9,6.9,30,0.00,CLR,,0.00,WeatherDisplay:10.37,2013-06-12 06:59:00,
2013-06-12 10:02:00,79.9,46.5,29.47,WNW,292,5.8,5.8,31,0.00,CLR,,0.00,WeatherDisplay:10.37,2013-06-12 07:02:00,
2013-06-12 10:03:00,79.9,46.5,29.47,West,270,5.8,5.8,31,0.00,CLR,,0.00,WeatherDisplay:10.37,2013-06-12 07:03:00,
2013-06-12 10:04:00,80.1,46.7,29.47,WSW,248,5.8,5.8,31,0.00,CLR,,0.00,WeatherDisplay:10.37,2013-06-12 07:04:00,
2013-06-12 10:05:00,81.1,46.8,29.47,WNW,292,5.8,5.8,30,0.00,CLR,,0.00,WeatherDisplay:10.37,2013-06-12 07:05:00,
2013-06-12 10:07:00,81.3,46.9,29.47,West,270,5.8,5.8,30,0.00,CLR,,0.00,WeatherDisplay:10.37,2013-06-12 07:07:00,
2013-06-12 10:08:00,81.9,47.4,29.47,WNW,292,5.8,5.8,30,0.00,CLR,,0.00,WeatherDisplay:10.37,2013-06-12 07:08:00,
2013-06-12 10:09:00,82.6,48.0,29.47,SSE,158,4.6,4.6,30,0.00,CLR,,0.00,WeatherDisplay:10.37,2013-06-12 07:09:00,
2013-06-12 10:10:00,82.6,48.0,29.47,SSE,158,3.5,3.5,30,0.00,CLR,,0.00,WeatherDisplay:10.37,2013-06-12 07:10:00,
2013-06-12 10:13:00,83.8,46.3,29.47,WSW,248,9.2,9.2,27,0.00,CLR,,0.00,WeatherDisplay:10.37,2013-06-12 07:13:00,
2013-06-12 10:15:00,83.1,45.7,29.47,WSW,248,6.9,6.9,27,0.00,CLR,,0.00,WeatherDisplay:10.37,2013-06-12 07:15:00,
2013-06-12 10:18:00,82.9,45.5,29.47,NNW,338,6.9,6.9,27,0.00,CLR,,0.00,WeatherDisplay:10.37,2013-06-12 07:18:00,
2013-06-12 10:20:00,82.0,47.5,29.47,WSW,248,11.5,11.5,30,0.00,CLR,,0.00,WeatherDisplay:10.37,2013-06-12 07:20:00,
2013-06-12 10:21:00,82.0,47.5,29.47,West,270,8.1,8.1,30,0.00,CLR,,0.00,WeatherDisplay:10.37,2013-06-12 07:21:00,
2013-06-12 10:23:00,83.1,48.5,29.47,WSW,248,4.6,4.6,30,0.00,CLR,,0.00,WeatherDisplay:10.37,2013-06-12 07:23:00,
2013-06-12 10:25:00,82.6,48.0,29.47,WSW,248,8.1,8.1,30,0.00,CLR,,0.00,WeatherDisplay:10.37,2013-06-12 07:25:00,
2013-06-12 10:26:00,82.6,48.0,29.47,WSW,248,11.5,11.5,30,0.00,CLR,,0.00,WeatherDisplay:10.37,2013-06-12 07:26:00,
2013-06-12 10:28:00,81.9,48.3,29.47,WSW,248,10.4,10.4,31,0.00,CLR,,0.00,WeatherDisplay:10.37,2013-06-12 07:28:00,
2013-06-12 10:29:00,81.5,47.1,29.47,WNW,292,10.4,10.4,30,0.00,CLR,,0.00,WeatherDisplay:10.37,2013-06-12 07:29:00,
2013-06-12 10:30:00,81.7,48.1,29.47,WSW,248,10.4,10.4,31,0.00,CLR,,0.00,WeatherDisplay:10.37,2013-06-12 07:30:00,
2013-06-12 10:31:00,81.7,48.1,29.47,WSW,248,8.1,8.1,31,0.00,CLR,,0.00,WeatherDisplay:10.37,2013-06-12 07:31:00,
2013-06-12 10:32:00,81.9,48.3,29.47,WSW,248,6.9,6.9,31,0.00,CLR,,0.00,WeatherDisplay:10.37,2013-06-12 07:32:00,
2013-06-12 10:33:00,82.0,48.4,29.47,WSW,248,6.9,6.9,31,0.00,CLR,,0.00,WeatherDisplay:10.37,2013-06-12 07:33:00,
2013-06-12 10:34:00,82.0,48.4,29.47,SW,225,7.4,7.4,31,0.00,CLR,,0.00,WeatherDisplay:10.37,2013-06-12 07:34:00,
2013-06-12 10:35:00,82.2,48.6,29.47,SW,225,6.9,6.9,31,0.00,CLR,,0.00,WeatherDisplay:10.37,2013-06-12 07:35:00,
2013-06-12 10:36:00,82.2,48.6,29.47,SW,225,6.9,6.9,31,0.00,CLR,,0.00,WeatherDisplay:10.37,2013-06-12 07:36:00,
2013-06-12 10:37:00,81.9,48.3,29.47,WSW,248,6.9,6.9,31,0.00,CLR,,0.00,WeatherDisplay:10.37,2013-06-12 07:37:00,
2013-06-12 10:39:00,81.9,48.3,29.47,WSW,248,5.8,5.8,31,0.00,CLR,,0.00,WeatherDisplay:10.37,2013-06-12 07:39:00,
2013-06-12 10:40:00,81.7,48.1,29.47,WSW,248,5.8,5.8,31,0.00,CLR,,0.00,WeatherDisplay:10.37,2013-06-12 07:40:00,
2013-06-12 10:41:00,82.0,48.4,29.47,WSW,248,4.6,4.6,31,0.00,CLR,,0.00,WeatherDisplay:10.37,2013-06-12 07:41:00,
2013-06-12 10:42:00,82.6,48.0,29.47,WNW,292,8.1,8.1,30,0.00,CLR,,0.00,WeatherDisplay:10.37,2013-06-12 07:42:00,
2013-06-12 10:44:00,82.8,48.2,29.47,West,270,5.8,5.8,30,0.00,CLR,,0.00,WeatherDisplay:10.37,2013-06-12 07:44:00,
2013-06-12 10:45:00,83.1,48.5,29.47,WSW,248,5.8,5.8,30,0.00,CLR,,0.00,WeatherDisplay:10.37,2013-06-12 07:45:00,
2013-06-12 10:46:00,83.3,48.6,29.47,SW,225,4.6,4.6,30,0.00,CLR,,0.00,WeatherDisplay:10.37,2013-06-12 07:46:00,
2013-06-12 10:48:00,83.8,49.1,29.47,SW,225,6.2,6.2,30,0.00,CLR,,0.00,WeatherDisplay:10.37,2013-06-12 07:48:00,
2013-06-12 10:49:00,83.7,48.9,29.47,WSW,248,5.8,5.8,30,0.00,CLR,,0.00,WeatherDisplay:10.37,2013-06-12 07:49:00,
2013-06-12 10:50:00,83.8,49.0,29.47,SW,236,3.0,6.0,30,0.00,CLR,,0.00,WeatherDisplay:10.37,2013-06-12 07:50:00,
2013-06-12 10:51:00,83.7,48.9,29.47,WNW,292,9.7,9.7,30,0.00,CLR,,0.00,WeatherDisplay:10.37,2013-06-12 07:51:00,
2013-06-12 10:53:00,84.0,49.2,29.47,SSW,202,5.8,5.8,30,0.00,CLR,,0.00,WeatherDisplay:10.37,2013-06-12 07:53:00,
2013-06-12 10:54:00,83.7,46.1,29.47,West,270,9.2,9.2,27,0.00,CLR,,0.00,WeatherDisplay:10.37,2013-06-12 07:54:00,
2013-06-12 10:55:00,83.5,48.8,29.47,WSW,248,10.4,10.4,30,0.00,CLR,,0.00,WeatherDisplay:10.37,2013-06-12 07:55:00,
2013-06-12 10:57:00,83.8,49.1,29.47,West,270,9.2,9.2,30,0.00,CLR,,0.00,WeatherDisplay:10.37,2013-06-12 07:57:00,
2013-06-12 10:58:00,83.5,48.8,29.47,WSW,248,8.1,8.1,30,0.00,CLR,,0.00,WeatherDisplay:10.37,2013-06-12 07:58:00,
2013-06-12 10:59:00,83.3,48.6,29.47,WSW,248,8.1,8.1,30,0.00,CLR,,0.00,WeatherDisplay:10.37,2013-06-12 07:59:00,
2013-06-12 11:00:00,83.1,45.7,29.47,SW,225,8.1,8.1,27,0.00,CLR,,0.00,WeatherDisplay:10.37,2013-06-12 08:00:00,
2013-06-12 11:02:00,84.2,48.5,29.47,SSE,158,5.8,5.8,29,0.00,CLR,,0.00,WeatherDisplay:10.37,2013-06-12 08:02:00,
2013-06-12 11:03:00,84.9,47.2,29.47,SSW,202,4.6,4.6,27,0.00,CLR,,0.00,WeatherDisplay:10.37,2013-06-12 08:03:00,
2013-06-12 11:04:00,84.7,47.1,29.47,WSW,248,6.9,6.9,27,0.00,CLR,,0.00,WeatherDisplay:10.37,2013-06-12 08:04:00,
2013-06-12 11:05:00,84.7,47.1,29.47,WSW,248,6.9,6.9,27,0.00,CLR,,0.00,WeatherDisplay:10.37,2013-06-12 08:05:00,
2013-06-12 11:07:00,85.1,47.4,29.47,SSW,202,4.6,4.6,27,0.00,CLR,,0.00,WeatherDisplay:10.37,2013-06-12 08:07:00,
2013-06-12 11:08:00,85.1,47.4,29.47,SSW,202,6.9,6.9,27,0.00,CLR,,0.00,WeatherDisplay:10.37,2013-06-12 08:08:00,
2013-06-12 11:09:00,85.1,47.4,29.47,WSW,248,6.9,6.9,27,0.00,CLR,,0.00,WeatherDisplay:10.37,2013-06-12 08:09:00,
2013-06-12 11:11:00,85.1,47.4,29.47,SW,225,7.4,7.4,27,0.00,CLR,,0.00,WeatherDisplay:10.37,2013-06-12 08:11:00,
2013-06-12 11:12:00,85.1,49.3,29.47,SW,225,6.9,6.9,29,0.00,CLR,,0.00,WeatherDisplay:10.37,2013-06-12 08:12:00,
2013-06-12 11:14:00,84.9,49.1,29.47,SSW,202,6.9,6.9,29,0.00,CLR,,0.00,WeatherDisplay:10.37,2013-06-12 08:14:00,
2013-06-12 11:15:00,84.8,49.0,29.47,SW,218,5.0,8.0,29,0.00,CLR,,0.00,WeatherDisplay:10.37,2013-06-12 08:15:00,
2013-06-12 11:16:00,84.9,49.1,29.47,SSW,202,6.9,6.9,29,0.00,CLR,,0.00,WeatherDisplay:10.37,2013-06-12 08:16:00,
2013-06-12 11:18:00,84.9,49.1,29.47,WSW,248,8.1,8.1,29,0.00,CLR,,0.00,WeatherDisplay:10.37,2013-06-12 08:18:00,
2013-06-12 11:19:00,84.9,49.1,29.47,South,180,9.2,9.2,29,0.00,CLR,,0.00,WeatherDisplay:10.37,2013-06-12 08:19:00,
2013-06-12 11:20:00,84.6,48.8,29.47,SSW,202,9.2,9.2,29,0.00,CLR,,0.00,WeatherDisplay:10.37,2013-06-12 08:20:00,
2013-06-12 11:21:00,84.4,48.6,29.47,SW,225,5.8,5.8,29,0.00,CLR,,0.00,WeatherDisplay:10.37,2013-06-12 08:21:00,
2013-06-12 11:23:00,84.2,48.5,29.47,WSW,248,5.8,5.8,29,0.00,CLR,,0.00,WeatherDisplay:10.37,2013-06-12 08:23:00,
2013-06-12 11:24:00,84.6,48.8,29.47,SSE,158,5.8,5.8,29,0.00,CLR,,0.00,WeatherDisplay:10.37,2013-06-12 08:24:00,
2013-06-12 11:25:00,84.6,48.8,29.47,WSW,248,5.8,5.8,29,0.00,CLR,,0.00,WeatherDisplay:10.37,2013-06-12 08:25:00,
2013-06-12 11:27:00,84.7,49.0,29.47,SW,225,5.8,5.8,29,0.00,CLR,,0.00,WeatherDisplay:10.37,2013-06-12 08:27:00,
2013-06-12 11:28:00,84.6,48.8,29.47,SW,225,10.7,10.7,29,0.00,CLR,,0.00,WeatherDisplay:10.37,2013-06-12 08:28:00,
2013-06-12 11:29:00,83.7,48.9,29.47,WSW,248,10.4,10.4,30,0.00,CLR,,0.00,WeatherDisplay:10.37,2013-06-12 08:29:00,
2013-06-12 11:30:00,83.7,49.0,29.47,SSW,207,6.0,11.0,30,0.00,CLR,,0.00,WeatherDisplay:10.37,2013-06-12 08:30:00,
2013-06-12 11:32:00,83.5,49.7,29.47,SW,225,5.9,5.9,31,0.00,CLR,,0.00,WeatherDisplay:10.37,2013-06-12 08:32:00,
2013-06-12 11:33:00,83.7,49.8,29.47,SSW,202,5.8,5.8,31,0.00,CLR,,0.00,WeatherDisplay:10.37,2013-06-12 08:33:00,
2013-06-12 11:34:00,84.2,50.3,29.47,SSW,202,5.9,5.9,31,0.00,CLR,,0.00,WeatherDisplay:10.37,2013-06-12 08:34:00,
2013-06-12 11:35:00,84.2,49.4,29.47,SW,225,6.9,6.9,30,0.00,CLR,,0.00,WeatherDisplay:10.37,2013-06-12 08:35:00,
2013-06-12 11:37:00,85.3,50.3,29.47,SW,225,5.8,5.8,30,0.00,CLR,,0.00,WeatherDisplay:10.37,2013-06-12 08:37:00,
2013-06-12 11:38:00,85.5,50.5,29.47,SSW,202,5.9,5.9,30,0.00,CLR,,0.00,WeatherDisplay:10.37,2013-06-12 08:38:00,
2013-06-12 11:40:00,84.7,49.9,29.47,SW,225,6.9,6.9,30,0.00,CLR,,0.00,WeatherDisplay:10.37,2013-06-12 08:40:00,
2013-06-12 11:41:00,84.9,50.0,29.47,WSW,248,5.8,5.8,30,0.00,CLR,,0.00,WeatherDisplay:10.37,2013-06-12 08:41:00,
2013-06-12 11:42:00,84.7,49.9,29.47,SSW,202,6.9,6.9,30,0.00,CLR,,0.00,WeatherDisplay:10.37,2013-06-12 08:42:00,
2013-06-12 11:43:00,83.8,50.0,29.47,SSW,202,5.8,5.8,31,0.00,CLR,,0.00,WeatherDisplay:10.37,2013-06-12 08:43:00,
2013-06-12 11:45:00,83.3,48.6,29.47,SSW,202,5.8,5.8,30,0.00,CLR,,0.00,WeatherDisplay:10.37,2013-06-12 08:45:00,
2013-06-12 11:46:00,83.5,48.8,29.47,SSW,202,5.8,5.8,30,0.00,CLR,,0.00,WeatherDisplay:10.37,2013-06-12 08:46:00,
2013-06-12 11:47:00,84.2,49.4,29.47,WSW,248,5.9,5.9,30,0.00,CLR,,0.00,WeatherDisplay:10.37,2013-06-12 08:47:00,
2013-06-12 11:48:00,84.0,50.1,29.47,West,270,6.4,6.4,31,0.00,CLR,,0.00,WeatherDisplay:10.37,2013-06-12 08:48:00,
2013-06-12 11:50:00,83.8,49.1,29.47,WSW,248,3.8,4.5,30,0.00,CLR,,0.00,WeatherDisplay:10.37,2013-06-12 08:50:00,
2013-06-12 11:51:00,83.8,49.1,29.47,WSW,248,5.8,5.8,30,0.00,CLR,,0.00,WeatherDisplay:10.37,2013-06-12 08:51:00,
2013-06-12 11:52:00,84.6,49.7,29.47,South,180,5.8,5.8,30,0.00,CLR,,0.00,WeatherDisplay:10.37,2013-06-12 08:52:00,
2013-06-12 11:53:00,84.4,49.6,29.47,South,180,8.1,8.1,30,0.00,CLR,,0.00,WeatherDisplay:10.37,2013-06-12 08:53:00,
2013-06-12 11:55:00,84.6,49.7,29.47,SSW,202,6.9,6.9,30,0.00,CLR,,0.00,WeatherDisplay:10.37,2013-06-12 08:55:00,
2013-06-12 11:56:00,84.6,49.7,29.47,SSW,202,5.8,5.8,30,0.00,CLR,,0.00,WeatherDisplay:10.37,2013-06-12 08:56:00,
2013-06-12 11:58:00,84.9,50.0,29.47,WSW,248,9.2,9.2,30,0.00,CLR,,0.00,WeatherDisplay:10.37,2013-06-12 08:58:00,
2013-06-12 12:00:00,84.7,49.9,29.47,WSW,248,7.1,7.1,30,0.00,CLR,,0.00,WeatherDisplay:10.37,2013-06-12 09:00:00,
2013-06-12 12:01:00,84.6,49.7,29.47,SW,225,8.1,8.1,30,0.00,CLR,,0.00,WeatherDisplay:10.37,2013-06-12 09:01:00,
2013-06-12 12:02:00,84.6,49.7,29.47,SSW,202,6.9,6.9,30,0.00,CLR,,0.00,WeatherDisplay:10.37,2013-06-12 09:02:00,
2013-06-12 12:03:00,84.6,49.7,29.47,South,180,6.9,6.9,30,0.00,CLR,,0.00,WeatherDisplay:10.37,2013-06-12 09:03:00,
2013-06-12 12:06:00,84.9,50.0,29.47,WSW,248,4.6,4.6,30,0.00,CLR,,0.00,WeatherDisplay:10.37,2013-06-12 09:06:00,
2013-06-12 12:07:00,84.9,50.0,29.47,SSW,202,4.6,4.6,30,0.00,CLR,,0.00,WeatherDisplay:10.37,2013-06-12 09:07:00,
2013-06-12 12:08:00,85.8,50.8,29.47,WSW,248,5.8,5.8,30,0.00,CLR,,0.00,WeatherDisplay:10.37,2013-06-12 09:08:00,
2013-06-12 12:09:00,85.8,50.8,29.47,SW,225,5.8,5.8,30,0.00,CLR,,0.00,WeatherDisplay:10.37,2013-06-12 09:09:00,
2013-06-12 12:11:00,86.2,50.2,29.47,West,270,6.9,6.9,29,0.00,CLR,,0.00,WeatherDisplay:10.37,2013-06-12 09:11:00,
2013-06-12 12:12:00,86.2,50.2,29.47,SSE,158,5.8,5.8,29,0.00,CLR,,0.00,WeatherDisplay:10.37,2013-06-12 09:12:00,
2013-06-12 12:13:00,86.0,50.0,29.47,SSW,202,6.9,6.9,29,0.00,CLR,,0.00,WeatherDisplay:10.37,2013-06-12 09:13:00,
2013-06-12 12:14:00,86.0,50.0,29.47,SW,225,6.9,6.9,29,0.00,CLR,,0.00,WeatherDisplay:10.37,2013-06-12 09:14:00,
2013-06-12 12:16:00,85.6,49.7,29.47,SSE,158,8.1,8.1,29,0.00,CLR,,0.00,WeatherDisplay:10.37,2013-06-12 09:16:00,
2013-06-12 12:17:00,85.6,49.7,29.47,South,180,5.8,5.8,29,0.00,CLR,,0.00,WeatherDisplay:10.37,2013-06-12 09:17:00,
2013-06-12 12:18:00,86.0,50.0,29.47,SSW,202,5.8,5.8,29,0.00,CLR,,0.00,WeatherDisplay:10.37,2013-06-12 09:18:00,
2013-06-12 12:19:00,86.0,50.0,29.47,WSW,248,4.6,4.6,29,0.00,CLR,,0.00,WeatherDisplay:10.37,2013-06-12 09:19:00,
2013-06-12 12:22:00,86.5,50.5,29.47,WSW,248,6.9,6.9,29,0.00,CLR,,0.00,WeatherDisplay:10.37,2013-06-12 09:22:00,
2013-06-12 12:23:00,85.6,49.7,29.47,WSW,248,8.1,8.1,29,0.00,CLR,,0.00,WeatherDisplay:10.37,2013-06-12 09:23:00,
2013-06-12 12:24:00,85.6,49.7,29.47,WSW,248,6.0,6.0,29,0.00,CLR,,0.00,WeatherDisplay:10.37,2013-06-12 09:24:00,
2013-06-12 12:25:00,85.6,49.7,29.47,SW,228,6.0,9.0,29,0.00,CLR,,0.00,WeatherDisplay:10.37,2013-06-12 09:25:00,
2013-06-12 12:27:00,85.6,49.7,29.47,SSW,202,3.5,3.5,29,0.00,CLR,,0.00,WeatherDisplay:10.37,2013-06-12 09:27:00,
2013-06-12 12:28:00,86.4,50.3,29.47,West,270,6.9,6.9,29,0.00,CLR,,0.00,WeatherDisplay:10.37,2013-06-12 09:28:00,
2013-06-12 12:29:00,86.4,50.3,29.47,SW,225,6.9,6.9,29,0.00,CLR,,0.00,WeatherDisplay:10.37,2013-06-12 09:29:00,
2013-06-12 12:30:00,86.7,50.7,29.47,SW,225,5.8,5.8,29,0.00,CLR,,0.00,WeatherDisplay:10.37,2013-06-12 09:30:00,
2013-06-12 12:32:00,86.9,50.8,29.47,SSW,202,3.5,3.5,29,0.00,CLR,,0.00,WeatherDisplay:10.37,2013-06-12 09:32:00,
2013-06-12 12:33:00,86.9,50.8,29.47,WSW,248,6.4,6.4,29,0.00,CLR,,0.00,WeatherDisplay:10.37,2013-06-12 09:33:00,
2013-06-12 12:34:00,86.7,50.7,29.47,SW,225,6.9,6.9,29,0.00,CLR,,0.00,WeatherDisplay:10.37,2013-06-12 09:34:00,
2013-06-12 12:35:00,86.5,50.5,29.47,SSW,202,8.1,8.1,29,0.00,CLR,,0.00,WeatherDisplay:10.37,2013-06-12 09:35:00,
2013-06-12 12:38:00,87.4,51.3,29.47,SW,225,5.9,5.9,29,0.00,CLR,,0.00,WeatherDisplay:10.37,2013-06-12 09:38:00,
2013-06-12 12:39:00,87.1,51.0,29.47,SSE,158,5.8,5.8,29,0.00,CLR,,0.00,WeatherDisplay:10.37,2013-06-12 09:39:00,
2013-06-12 12:40:00,86.7,50.7,29.47,WSW,248,8.1,8.1,29,0.00,CLR,,0.00,WeatherDisplay:10.37,2013-06-12 09:40:00,
2013-06-12 12:43:00,86.5,50.5,29.47,SSW,202,8.1,8.1,29,0.00,CLR,,0.00,WeatherDisplay:10.37,2013-06-12 09:43:00,
2013-06-12 12:44:00,86.4,50.3,29.47,SW,225,8.1,8.1,29,0.00,CLR,,0.00,WeatherDisplay:10.37,2013-06-12 09:44:00,
2013-06-12 12:45:00,86.0,50.0,29.47,SSW,202,8.1,8.1,29,0.00,CLR,,0.00,WeatherDisplay:10.37,2013-06-12 09:45:00,
2013-06-12 12:48:00,86.0,50.0,29.47,WSW,248,9.2,9.2,29,0.00,CLR,,0.00,WeatherDisplay:10.37,2013-06-12 09:48:00,
2013-06-12 12:49:00,85.8,49.9,29.47,SSW,202,5.8,5.8,29,0.00,CLR,,0.00,WeatherDisplay:10.37,2013-06-12 09:49:00,
2013-06-12 12:50:00,85.8,49.9,29.47,SSW,202,6.9,6.9,29,0.00,CLR,,0.00,WeatherDisplay:10.37,2013-06-12 09:50:00,
2013-06-12 12:53:00,86.5,50.5,29.47,SSW,202,5.8,5.8,29,0.00,CLR,,0.00,WeatherDisplay:10.37,2013-06-12 09:53:00,
2013-06-12 12:54:00,86.9,50.8,29.47,SSW,202,6.0,6.0,29,0.00,CLR,,0.00,WeatherDisplay:10.37,2013-06-12 09:54:00,
2013-06-12 12:56:00,86.0,50.0,29.47,WSW,248,8.1,8.1,29,0.00,CLR,,0.00,WeatherDisplay:10.37,2013-06-12 09:56:00,
2013-06-12 12:58:00,86.9,50.8,29.47,South,180,6.0,6.0,29,0.00,CLR,,0.00,WeatherDisplay:10.37,2013-06-12 09:58:00,
2013-06-12 12:59:00,86.2,50.2,29.47,WSW,248,8.1,8.1,29,0.00,CLR,,0.00,WeatherDisplay:10.37,2013-06-12 09:59:00,
2013-06-12 13:00:00,86.3,50.3,29.47,SW,222,5.0,8.0,29,0.00,CLR,,0.00,WeatherDisplay:10.37,2013-06-12 10:00:00,
2013-06-12 13:01:00,86.2,50.2,29.47,South,180,8.1,8.1,29,0.00,CLR,,0.00,WeatherDisplay:10.37,2013-06-12 10:01:00,
2013-06-12 13:04:00,85.6,47.8,29.47,WSW,248,6.9,6.9,27,0.00,CLR,,0.00,WeatherDisplay:10.37,2013-06-12 10:04:00,
2013-06-12 13:05:00,85.8,49.9,29.47,WSW,248,5.8,5.8,29,0.00,CLR,,0.00,WeatherDisplay:10.37,2013-06-12 10:05:00,
2013-06-12 13:06:00,86.5,50.5,29.47,SSW,202,4.9,4.9,29,0.00,CLR,,0.00,WeatherDisplay:10.37,2013-06-12 10:06:00,
2013-06-12 13:09:00,87.1,51.0,29.47,SW,225,8.1,8.1,29,0.00,CLR,,0.00,WeatherDisplay:10.37,2013-06-12 10:09:00,
2013-06-12 13:10:00,86.9,50.8,29.47,WSW,248,8.1,8.1,29,0.00,CLR,,0.00,WeatherDisplay:10.37,2013-06-12 10:10:00,
2013-06-12 13:11:00,87.3,51.1,29.47,WSW,248,6.9,6.9,29,0.00,CLR,,0.00,WeatherDisplay:10.37,2013-06-12 10:11:00,
2013-06-12 13:12:00,87.8,51.6,29.47,South,180,6.9,6.9,29,0.00,CLR,,0.00,WeatherDisplay:10.37,2013-06-12 10:12:00,
2013-06-12 13:14:00,87.6,51.4,29.47,SSW,202,4.6,4.6,29,0.00,CLR,,0.00,WeatherDisplay:10.37,2013-06-12 10:14:00,
2013-06-12 13:15:00,87.6,51.4,29.47,SW,222,2.0,7.0,29,0.00,CLR,,0.00,WeatherDisplay:10.37,2013-06-12 10:15:00,
2013-06-12 13:16:00,89.2,49.9,29.47,South,180,6.2,6.2,26,0.00,CLR,,0.00,WeatherDisplay:10.37,2013-06-12 10:16:00,
2013-06-12 13:17:00,88.7,49.4,29.47,SW,225,5.8,5.8,26,0.00,CLR,,0.00,WeatherDisplay:10.37,2013-06-12 10:17:00,
2013-06-12 13:19:00,88.7,49.4,29.47,SSE,158,5.8,5.8,26,0.00,CLR,,0.00,WeatherDisplay:10.37,2013-06-12 10:19:00,
2013-06-12 13:20:00,88.7,49.4,29.47,SSW,202,5.8,5.8,26,0.00,CLR,,0.00,WeatherDisplay:10.37,2013-06-12 10:20:00,
2013-06-12 13:22:00,88.7,49.4,29.47,SSE,158,5.8,5.8,26,0.00,CLR,,0.00,WeatherDisplay:10.37,2013-06-12 10:22:00,
2013-06-12 13:24:00,87.1,49.0,29.44,SSW,202,10.4,10.4,27,0.00,CLR,,0.00,WeatherDisplay:10.37,2013-06-12 10:24:00,
2013-06-12 13:25:00,86.5,50.5,29.44,South,180,9.2,9.2,29,0.00,CLR,,0.00,WeatherDisplay:10.37,2013-06-12 10:25:00,
2013-06-12 13:26:00,86.0,50.0,29.44,SSE,158,6.9,6.9,29,0.00,CLR,,0.00,WeatherDisplay:10.37,2013-06-12 10:26:00,
2013-06-12 13:27:00,86.0,50.0,29.44,SW,225,5.8,5.8,29,0.00,CLR,,0.00,WeatherDisplay:10.37,2013-06-12 10:27:00,
2013-06-12 13:29:00,85.6,49.7,29.44,SSW,202,6.4,6.4,29,0.00,CLR,,0.00,WeatherDisplay:10.37,2013-06-12 10:29:00,
2013-06-12 13:30:00,85.6,49.7,29.44,SSW,202,6.9,6.9,29,0.00,CLR,,0.00,WeatherDisplay:10.37,2013-06-12 10:30:00,
2013-06-12 13:31:00,85.3,49.4,29.44,South,180,10.4,10.4,29,0.00,CLR,,0.00,WeatherDisplay:10.37,2013-06-12 10:31:00,
2013-06-12 13:32:00,85.3,49.4,29.44,SSE,158,10.4,10.4,29,0.00,CLR,,0.00,WeatherDisplay:10.37,2013-06-12 10:32:00,
2013-06-12 13:33:00,85.3,49.4,29.44,SSW,202,9.2,9.2,29,0.00,CLR,,0.00,WeatherDisplay:10.37,2013-06-12 10:33:00,
2013-06-12 13:34:00,85.1,50.2,29.44,WSW,248,9.2,9.2,30,0.00,CLR,,0.00,WeatherDisplay:10.37,2013-06-12 10:34:00,
2013-06-12 13:35:00,84.9,50.0,29.44,SSW,202,6.9,6.9,30,0.00,CLR,,0.00,WeatherDisplay:10.37,2013-06-12 10:35:00,
2013-06-12 13:37:00,84.4,49.6,29.44,West,270,8.1,8.1,30,0.00,CLR,,0.00,WeatherDisplay:10.37,2013-06-12 10:37:00,
2013-06-12 13:38:00,84.4,49.6,29.47,SSW,202,6.9,6.9,30,0.00,CLR,,0.00,WeatherDisplay:10.37,2013-06-12 10:38:00,
2013-06-12 13:40:00,83.7,48.9,29.47,South,180,5.8,5.8,30,0.00,CLR,,0.00,WeatherDisplay:10.37,2013-06-12 10:40:00,
2013-06-12 13:42:00,84.0,49.2,29.47,SSE,158,5.9,5.9,30,0.00,CLR,,0.00,WeatherDisplay:10.37,2013-06-12 10:42:00,
2013-06-12 13:43:00,84.2,49.4,29.47,South,180,5.8,5.8,30,0.00,CLR,,0.00,WeatherDisplay:10.37,2013-06-12 10:43:00,
2013-06-12 13:45:00,84.4,49.6,29.47,SSE,158,3.5,3.5,30,0.00,CLR,,0.00,WeatherDisplay:10.37,2013-06-12 10:45:00,
2013-06-12 13:47:00,83.8,49.1,29.47,SE,135,9.8,9.8,30,0.00,CLR,,0.00,WeatherDisplay:10.37,2013-06-12 10:47:00,
2013-06-12 13:48:00,83.8,49.1,29.47,SSE,158,6.9,6.9,30,0.00,CLR,,0.00,WeatherDisplay:10.37,2013-06-12 10:48:00,
2013-06-12 13:51:00,83.5,48.8,29.47,SSW,202,8.1,8.1,30,0.00,CLR,,0.00,WeatherDisplay:10.37,2013-06-12 10:51:00,
2013-06-12 13:52:00,83.1,48.5,29.47,SSW,202,5.8,5.8,30,0.00,CLR,,0.00,WeatherDisplay:10.37,2013-06-12 10:52:00,
2013-06-12 13:53:00,82.8,48.2,29.47,SSE,158,5.8,5.8,30,0.00,CLR,,0.00,WeatherDisplay:10.37,2013-06-12 10:53:00,
2013-06-12 13:54:00,83.1,48.5,29.47,SSW,202,5.8,5.8,30,0.00,CLR,,0.00,WeatherDisplay:10.37,2013-06-12 10:54:00,
2013-06-12 13:56:00,82.8,48.2,29.47,WSW,248,8.1,8.1,30,0.00,CLR,,0.00,WeatherDisplay:10.37,2013-06-12 10:56:00,
2013-06-12 13:58:00,81.9,48.3,29.47,SSE,158,6.9,6.9,31,0.00,CLR,,0.00,WeatherDisplay:10.37,2013-06-12 10:58:00,
2013-06-12 13:59:00,81.5,47.9,29.47,SSW,202,8.1,8.1,31,0.00,CLR,,0.00,WeatherDisplay:10.37,2013-06-12 10:59:00,
2013-06-12 14:01:00,80.8,48.2,29.47,SW,225,9.7,9.7,32,0.00,CLR,,0.00,WeatherDisplay:10.37,2013-06-12 11:01:00,
2013-06-12 14:03:00,80.2,48.5,29.47,SSW,202,5.9,5.9,33,0.00,CLR,,0.00,WeatherDisplay:10.37,2013-06-12 11:03:00,
2013-06-12 14:04:00,79.9,48.2,29.47,South,180,5.8,5.8,33,0.00,CLR,,0.00,WeatherDisplay:10.37,2013-06-12 11:04:00,
2013-06-12 14:06:00,79.3,48.5,29.47,SW,225,10.4,10.4,34,0.00,CLR,,0.00,WeatherDisplay:10.37,2013-06-12 11:06:00,
2013-06-12 14:07:00,79.2,48.4,29.47,SSW,202,10.4,10.4,34,0.00,CLR,,0.00,WeatherDisplay:10.37,2013-06-12 11:07:00,
2013-06-12 14:08:00,78.6,49.4,29.47,South,180,9.2,9.2,36,0.00,CLR,,0.00,WeatherDisplay:10.37,2013-06-12 11:08:00,
2013-06-12 14:09:00,78.6,50.2,29.47,South,180,9.2,9.2,37,0.00,CLR,,0.00,WeatherDisplay:10.37,2013-06-12 11:09:00,
2013-06-12 14:11:00,78.6,50.9,29.47,South,180,5.9,5.9,38,0.00,CLR,,0.00,WeatherDisplay:10.37,2013-06-12 11:11:00,
2013-06-12 14:12:00,78.6,50.9,29.47,SSW,202,5.8,5.8,38,0.00,CLR,,0.00,WeatherDisplay:10.37,2013-06-12 11:12:00,
2013-06-12 14:13:00,78.6,50.9,29.47,South,180,4.6,4.6,38,0.00,CLR,,0.00,WeatherDisplay:10.37,2013-06-12 11:13:00,
2013-06-12 14:14:00,78.3,52.0,29.47,SSW,202,4.9,4.9,40,0.00,CLR,,0.00,WeatherDisplay:10.37,2013-06-12 11:14:00,
2013-06-12 14:17:00,77.9,52.3,29.47,SSE,158,6.9,6.9,41,0.00,CLR,,0.00,WeatherDisplay:10.37,2013-06-12 11:17:00,
2013-06-12 14:18:00,77.5,52.0,29.47,South,180,8.1,8.1,41,0.00,CLR,,0.00,WeatherDisplay:10.37,2013-06-12 11:18:00,
2013-06-12 14:19:00,77.4,51.8,29.47,SSW,202,8.1,8.1,41,0.00,CLR,,0.00,WeatherDisplay:10.37,2013-06-12 11:19:00,
2013-06-12 14:22:00,77.5,52.0,29.47,SSW,202,3.6,3.6,41,0.00,CLR,,0.00,WeatherDisplay:10.37,2013-06-12 11:22:00,
2013-06-12 14:23:00,77.4,51.8,29.47,SW,225,7.1,7.1,41,0.00,CLR,,0.00,WeatherDisplay:10.37,2013-06-12 11:23:00,
2013-06-12 14:24:00,77.0,50.8,29.47,WSW,248,6.9,6.9,40,0.00,CLR,,0.00,WeatherDisplay:10.37,2013-06-12 11:24:00,
2013-06-12 14:27:00,76.8,50.7,29.47,SSW,202,6.9,6.9,40,0.00,CLR,,0.00,WeatherDisplay:10.37,2013-06-12 11:27:00,
2013-06-12 14:28:00,77.0,51.5,29.47,SW,225,3.5,3.5,41,0.00,CLR,,0.00,WeatherDisplay:10.37,2013-06-12 11:28:00,
2013-06-12 14:29:00,76.8,52.0,29.47,SSW,202,6.2,6.2,42,0.00,CLR,,0.00,WeatherDisplay:10.37,2013-06-12 11:29:00,
2013-06-12 14:30:00,76.8,52.0,29.47,SSW,202,4.3,4.5,42,0.00,CLR,,0.00,WeatherDisplay:10.37,2013-06-12 11:30:00,
2013-06-12 14:32:00,76.8,52.0,29.47,South,180,6.9,6.9,42,0.00,CLR,,0.00,WeatherDisplay:10.37,2013-06-12 11:32:00,
2013-06-12 14:34:00,76.6,52.5,29.47,SSE,158,11.4,11.4,43,0.00,CLR,,0.00,WeatherDisplay:10.37,2013-06-12 11:34:00,
2013-06-12 14:35:00,76.5,52.3,29.47,South,180,5.8,7.1,43,0.00,CLR,,0.00,WeatherDisplay:10.37,2013-06-12 11:35:00,
2013-06-12 14:37:00,76.6,52.5,29.47,WSW,248,5.8,5.8,43,0.00,CLR,,0.00,WeatherDisplay:10.37,2013-06-12 11:37:00,
2013-06-12 14:39:00,76.6,53.1,29.50,SSW,202,6.9,6.9,44,0.00,CLR,,0.00,WeatherDisplay:10.37,2013-06-12 11:39:00,
2013-06-12 14:40:00,76.6,53.1,29.50,SSW,202,6.9,6.9,44,0.00,CLR,,0.00,WeatherDisplay:10.37,2013-06-12 11:40:00,
2013-06-12 14:42:00,76.5,53.5,29.50,South,180,5.8,5.8,45,0.00,CLR,,0.00,WeatherDisplay:10.37,2013-06-12 11:42:00,
2013-06-12 14:43:00,76.6,53.7,29.50,SSW,202,5.8,5.8,45,0.00,CLR,,0.00,WeatherDisplay:10.37,2013-06-12 11:43:00,
2013-06-12 14:44:00,76.5,53.5,29.50,SSW,202,4.6,4.6,45,0.00,CLR,,0.00,WeatherDisplay:10.37,2013-06-12 11:44:00,
2013-06-12 14:45:00,76.3,53.4,29.50,SW,225,5.8,5.8,45,0.00,CLR,,0.00,WeatherDisplay:10.37,2013-06-12 11:45:00,
2013-06-12 14:47:00,76.3,53.4,29.50,SW,225,8.1,8.1,45,0.00,CLR,,0.00,WeatherDisplay:10.37,2013-06-12 11:47:00,
2013-06-12 14:48:00,76.1,53.8,29.50,WSW,248,8.1,8.1,46,0.00,CLR,,0.00,WeatherDisplay:10.37,2013-06-12 11:48:00,
2013-06-12 14:49:00,75.9,53.6,29.50,SW,225,9.2,9.2,46,0.00,CLR,,0.00,WeatherDisplay:10.37,2013-06-12 11:49:00,
2013-06-12 14:50:00,75.9,53.6,29.50,South,180,5.8,5.8,46,0.00,CLR,,0.00,WeatherDisplay:10.37,2013-06-12 11:50:00,
2013-06-12 14:52:00,75.9,54.2,29.50,SSW,202,7.8,7.8,47,0.00,CLR,,0.00,WeatherDisplay:10.37,2013-06-12 11:52:00,
2013-06-12 14:53:00,75.6,55.1,29.50,WSW,248,8.1,8.1,49,0.00,CLR,,0.00,WeatherDisplay:10.37,2013-06-12 11:53:00,
2013-06-12 14:54:00,75.6,55.6,29.50,SW,225,9.2,9.2,50,0.00,CLR,,0.00,WeatherDisplay:10.37,2013-06-12 11:54:00,
2013-06-12 14:55:00,75.2,56.4,29.50,SW,225,10.4,10.4,52,0.00,CLR,,0.00,WeatherDisplay:10.37,2013-06-12 11:55:00,
2013-06-12 14:56:00,75.2,56.4,29.50,SSW,202,10.4,10.4,52,0.00,CLR,,0.00,WeatherDisplay:10.37,2013-06-12 11:56:00,
2013-06-12 14:57:00,74.8,56.0,29.50,West,270,12.7,12.7,52,0.00,CLR,,0.00,WeatherDisplay:10.37,2013-06-12 11:57:00,
2013-06-12 14:59:00,74.8,56.0,29.50,WNW,292,10.4,10.4,52,0.00,CLR,,0.00,WeatherDisplay:10.37,2013-06-12 11:59:00,
2013-06-12 15:00:00,74.8,56.0,29.50,WSW,248,9.4,9.4,52,0.00,CLR,,0.00,WeatherDisplay:10.37,2013-06-12 12:00:00,
2013-06-12 15:01:00,74.8,56.0,29.50,WSW,248,4.6,6.4,52,0.00,CLR,,0.00,WeatherDisplay:10.37,2013-06-12 12:01:00,
2013-06-12 15:03:00,74.7,55.3,29.50,SW,225,6.9,6.9,51,0.00,CLR,,0.00,WeatherDisplay:10.37,2013-06-12 12:03:00,
2013-06-12 15:04:00,74.8,55.5,29.50,WSW,248,8.1,8.1,51,0.00,CLR,,0.00,WeatherDisplay:10.37,2013-06-12 12:04:00,
2013-06-12 15:05:00,74.8,55.5,29.50,WSW,248,8.1,8.1,51,0.00,CLR,,0.00,WeatherDisplay:10.37,2013-06-12 12:05:00,
2013-06-12 15:06:00,74.5,54.6,29.50,SW,225,9.2,9.2,50,0.00,CLR,,0.00,WeatherDisplay:10.37,2013-06-12 12:06:00,
2013-06-12 15:08:00,74.7,54.8,29.50,SW,225,6.9,6.9,50,0.00,CLR,,0.00,WeatherDisplay:10.37,2013-06-12 12:08:00,
2013-06-12 15:09:00,74.3,53.9,29.50,WSW,248,8.1,8.1,49,0.00,CLR,,0.00,WeatherDisplay:10.37,2013-06-12 12:09:00,
2013-06-12 15:10:00,74.3,53.9,29.50,WSW,248,8.1,8.1,49,0.00,CLR,,0.00,WeatherDisplay:10.37,2013-06-12 12:10:00,
2013-06-12 15:11:00,74.5,54.1,29.50,WSW,248,6.9,6.9,49,0.00,CLR,,0.00,WeatherDisplay:10.37,2013-06-12 12:11:00,
2013-06-12 15:13:00,74.5,54.1,29.50,SE,135,10.4,10.4,49,0.00,CLR,,0.00,WeatherDisplay:10.37,2013-06-12 12:13:00,
2013-06-12 15:15:00,74.7,54.2,29.50,WNW,292,6.9,6.9,49,0.00,CLR,,0.00,WeatherDisplay:10.37,2013-06-12 12:15:00,
2013-06-12 15:17:00,74.8,54.4,29.50,SSW,202,6.9,6.9,49,0.00,CLR,,0.00,WeatherDisplay:10.37,2013-06-12 12:17:00,
2013-06-12 15:18:00,74.8,53.8,29.50,SSW,202,8.1,8.1,48,0.00,CLR,,0.00,WeatherDisplay:10.37,2013-06-12 12:18:00,
2013-06-12 15:20:00,74.8,53.8,29.50,WSW,248,8.1,8.1,48,0.00,CLR,,0.00,WeatherDisplay:10.37,2013-06-12 12:20:00,
2013-06-12 15:21:00,75.2,53.6,29.50,WSW,248,10.4,10.4,47,0.00,CLR,,0.00,WeatherDisplay:10.37,2013-06-12 12:21:00,
2013-06-12 15:22:00,75.6,53.9,29.50,South,180,5.8,5.8,47,0.00,CLR,,0.00,WeatherDisplay:10.37,2013-06-12 12:22:00,
2013-06-12 15:23:00,75.7,53.5,29.50,SSW,202,6.9,6.9,46,0.00,CLR,,0.00,WeatherDisplay:10.37,2013-06-12 12:23:00,
2013-06-12 15:25:00,76.2,53.9,29.50,SW,229,5.0,8.0,46,0.00,CLR,,0.00,WeatherDisplay:10.37,2013-06-12 12:25:00,
2013-06-12 15:26:00,76.5,54.1,29.50,SSW,202,8.1,8.1,46,0.00,CLR,,0.00,WeatherDisplay:10.37,2013-06-12 12:26:00,
2013-06-12 15:27:00,76.6,54.3,29.50,SW,225,5.8,5.8,46,0.00,CLR,,0.00,WeatherDisplay:10.37,2013-06-12 12:27:00,
2013-06-12 15:28:00,76.6,54.3,29.50,WSW,248,9.4,9.4,46,0.00,CLR,,0.00,WeatherDisplay:10.37,2013-06-12 12:28:00,
2013-06-12 15:30:00,76.8,53.9,29.50,SSW,202,5.8,5.8,45,0.00,CLR,,0.00,WeatherDisplay:10.37,2013-06-12 12:30:00,
2013-06-12 15:31:00,76.8,53.9,29.50,SW,225,6.9,6.9,45,0.00,CLR,,0.00,WeatherDisplay:10.37,2013-06-12 12:31:00,
2013-06-12 15:32:00,76.8,53.3,29.50,SSW,202,5.8,5.8,44,0.00,CLR,,0.00,WeatherDisplay:10.37,2013-06-12 12:32:00,
2013-06-12 15:33:00,77.0,53.4,29.50,WNW,292,4.6,4.6,44,0.00,CLR,,0.00,WeatherDisplay:10.37,2013-06-12 12:33:00,
2013-06-12 15:35:00,77.0,53.4,29.50,SSW,202,6.2,6.2,44,0.00,CLR,,0.00,WeatherDisplay:10.37,2013-06-12 12:35:00,
2013-06-12 15:36:00,77.0,53.4,29.50,SW,225,5.8,5.8,44,0.00,CLR,,0.00,WeatherDisplay:10.37,2013-06-12 12:36:00,
2013-06-12 15:37:00,76.8,53.3,29.50,SSW,202,8.1,8.1,44,0.00,CLR,,0.00,WeatherDisplay:10.37,2013-06-12 12:37:00,
2013-06-12 15:38:00,76.8,53.3,29.50,SW,225,9.7,9.7,44,0.00,CLR,,0.00,WeatherDisplay:10.37,2013-06-12 12:38:00,
2013-06-12 15:40:00,76.8,53.9,29.50,SSW,202,9.2,9.2,45,0.00,CLR,,0.00,WeatherDisplay:10.37,2013-06-12 12:40:00,
2013-06-12 15:41:00,76.8,53.9,29.50,West,270,6.9,6.9,45,0.00,CLR,,0.00,WeatherDisplay:10.37,2013-06-12 12:41:00,
2013-06-12 15:42:00,77.0,54.0,29.50,WSW,248,6.9,6.9,45,0.00,CLR,,0.00,WeatherDisplay:10.37,2013-06-12 12:42:00,
2013-06-12 15:43:00,76.8,53.9,29.50,WSW,248,3.8,4.3,45,0.00,CLR,,0.00,WeatherDisplay:10.37,2013-06-12 12:43:00,
2013-06-12 15:45:00,76.5,53.5,29.50,WSW,248,8.1,8.1,45,0.00,CLR,,0.00,WeatherDisplay:10.37,2013-06-12 12:45:00,
2013-06-12 15:46:00,76.5,53.5,29.50,WSW,248,7.1,7.1,45,0.00,CLR,,0.00,WeatherDisplay:10.37,2013-06-12 12:46:00,
2013-06-12 15:47:00,76.5,53.5,29.50,WSW,248,6.9,6.9,45,0.00,CLR,,0.00,WeatherDisplay:10.37,2013-06-12 12:47:00,
2013-06-12 15:48:00,76.5,53.5,29.50,SW,225,6.9,6.9,45,0.00,CLR,,0.00,WeatherDisplay:10.37,2013-06-12 12:48:00,
2013-06-12 15:51:00,76.5,53.5,29.50,West,270,6.9,6.9,45,0.00,CLR,,0.00,WeatherDisplay:10.37,2013-06-12 12:51:00,
2013-06-12 15:52:00,76.5,52.9,29.50,SSW,202,6.9,6.9,44,0.00,CLR,,0.00,WeatherDisplay:10.37,2013-06-12 12:52:00,
2013-06-12 15:53:00,76.5,52.9,29.50,SSW,202,6.9,6.9,44,0.00,CLR,,0.00,WeatherDisplay:10.37,2013-06-12 12:53:00,
2013-06-12 15:56:00,77.0,53.4,29.50,West,270,3.5,3.5,44,0.00,CLR,,0.00,WeatherDisplay:10.37,2013-06-12 12:56:00,
2013-06-12 15:58:00,77.2,53.6,29.50,SW,225,4.6,4.6,44,0.00,CLR,,0.00,WeatherDisplay:10.37,2013-06-12 12:58:00,
2013-06-12 16:01:00,76.8,53.3,29.50,WSW,248,8.1,8.1,44,0.00,CLR,,0.00,WeatherDisplay:10.37,2013-06-12 13:01:00,
2013-06-12 16:03:00,76.6,53.7,29.50,SSW,202,5.8,5.8,45,0.00,CLR,,0.00,WeatherDisplay:10.37,2013-06-12 13:03:00,
2013-06-12 16:04:00,76.6,53.7,29.50,SSW,202,5.8,5.8,45,0.00,CLR,,0.00,WeatherDisplay:10.37,2013-06-12 13:04:00,
2013-06-12 16:06:00,76.3,53.4,29.50,SSW,202,8.1,8.1,45,0.00,CLR,,0.00,WeatherDisplay:10.37,2013-06-12 13:06:00,
2013-06-12 16:08:00,76.3,53.4,29.50,SSE,158,6.9,6.9,45,0.00,CLR,,0.00,WeatherDisplay:10.37,2013-06-12 13:08:00,
2013-06-12 16:09:00,76.3,53.4,29.50,South,180,6.9,6.9,45,0.00,CLR,,0.00,WeatherDisplay:10.37,2013-06-12 13:09:00,
2013-06-12 16:11:00,76.1,52.6,29.50,SSW,202,6.0,6.0,44,0.00,CLR,,0.00,WeatherDisplay:10.37,2013-06-12 13:11:00,
2013-06-12 16:13:00,76.1,52.0,29.50,SSW,202,6.9,6.9,43,0.00,CLR,,0.00,WeatherDisplay:10.37,2013-06-12 13:13:00,
2013-06-12 16:14:00,76.1,52.0,29.50,WSW,248,6.9,6.9,43,0.00,CLR,,0.00,WeatherDisplay:10.37,2013-06-12 13:14:00,
2013-06-12 16:16:00,76.3,52.1,29.50,SW,225,5.4,5.4,43,0.00,CLR,,0.00,WeatherDisplay:10.37,2013-06-12 13:16:00,
2013-06-12 16:18:00,76.3,52.1,29.50,WSW,248,5.8,5.8,43,0.00,CLR,,0.00,WeatherDisplay:10.37,2013-06-12 13:18:00,
2013-06-12 16:19:00,76.5,52.9,29.50,WSW,248,5.8,5.8,44,0.00,CLR,,0.00,WeatherDisplay:10.37,2013-06-12 13:19:00,
2013-06-12 16:20:00,76.5,52.9,29.50,WSW,248,5.8,5.8,44,0.00,CLR,,0.00,WeatherDisplay:10.37,2013-06-12 13:20:00,
2013-06-12 16:21:00,76.5,53.5,29.50,SSW,202,5.8,5.8,45,0.00,CLR,,0.00,WeatherDisplay:10.37,2013-06-12 13:21:00,
2013-06-12 16:22:00,76.5,53.5,29.50,SW,225,5.8,5.8,45,0.00,CLR,,0.00,WeatherDisplay:10.37,2013-06-12 13:22:00,
2013-06-12 16:23:00,76.8,53.9,29.50,WSW,248,4.7,4.7,45,0.00,CLR,,0.00,WeatherDisplay:10.37,2013-06-12 13:23:00,
2013-06-12 16:24:00,76.8,54.5,29.50,SW,225,5.8,5.8,46,0.00,CLR,,0.00,WeatherDisplay:10.37,2013-06-12 13:24:00,
2013-06-12 16:25:00,76.6,54.3,29.50,WSW,248,4.6,4.6,46,0.00,CLR,,0.00,WeatherDisplay:10.37,2013-06-12 13:25:00,
2013-06-12 16:27:00,76.8,53.9,29.50,SSE,158,4.6,4.6,45,0.00,CLR,,0.00,WeatherDisplay:10.37,2013-06-12 13:27:00,
2013-06-12 16:29:00,76.6,53.7,29.50,WNW,292,3.5,3.5,45,0.00,CLR,,0.00,WeatherDisplay:10.37,2013-06-12 13:29:00,
2013-06-12 16:31:00,77.0,54.0,29.50,West,270,6.4,6.4,45,0.00,CLR,,0.00,WeatherDisplay:10.37,2013-06-12 13:31:00,
2013-06-12 16:32:00,76.6,53.1,29.50,West,270,6.9,6.9,44,0.00,CLR,,0.00,WeatherDisplay:10.37,2013-06-12 13:32:00,
2013-06-12 16:33:00,77.2,53.6,29.50,WNW,292,6.9,6.9,44,0.00,CLR,,0.00,WeatherDisplay:10.37,2013-06-12 13:33:00,
2013-06-12 16:34:00,77.2,53.6,29.50,South,180,3.5,3.5,44,0.00,CLR,,0.00,WeatherDisplay:10.37,2013-06-12 13:34:00,
2013-06-12 16:36:00,77.2,53.6,29.50,SSW,202,3.5,3.5,44,0.00,CLR,,0.00,WeatherDisplay:10.37,2013-06-12 13:36:00,
2013-06-12 16:37:00,77.2,53.6,29.50,SSW,202,2.3,2.3,44,0.00,CLR,,0.00,WeatherDisplay:10.37,2013-06-12 13:37:00,
2013-06-12 16:38:00,77.4,53.7,29.50,WSW,248,1.2,1.2,44,0.00,CLR,,0.00,WeatherDisplay:10.37,2013-06-12 13:38:00,
2013-06-12 16:39:00,77.7,53.4,29.47,SW,225,2.3,2.3,43,0.00,CLR,,0.00,WeatherDisplay:10.37,2013-06-12 13:39:00,
2013-06-12 16:40:00,77.7,53.4,29.47,SW,225,2.3,2.3,43,0.00,CLR,,0.00,WeatherDisplay:10.37,2013-06-12 13:40:00,
2013-06-12 16:41:00,78.1,53.8,29.47,SW,225,2.3,2.3,43,0.00,CLR,,0.00,WeatherDisplay:10.37,2013-06-12 13:41:00,
2013-06-12 16:42:00,77.9,53.6,29.47,WSW,248,2.3,2.3,43,0.00,CLR,,0.00,WeatherDisplay:10.37,2013-06-12 13:42:00,
2013-06-12 16:43:00,78.1,53.8,29.47,SW,225,1.2,1.4,43,0.00,CLR,,0.00,WeatherDisplay:10.37,2013-06-12 13:43:00,
2013-06-12 16:44:00,77.7,52.8,29.47,SSW,202,4.6,4.6,42,0.00,CLR,,0.00,WeatherDisplay:10.37,2013-06-12 13:44:00,
2013-06-12 16:45:00,77.7,52.8,29.47,SSW,202,4.6,4.6,42,0.00,CLR,,0.00,WeatherDisplay:10.37,2013-06-12 13:45:00,
2013-06-12 16:46:00,77.4,52.5,29.47,South,180,3.1,3.1,42,0.00,CLR,,0.00,WeatherDisplay:10.37,2013-06-12 13:46:00,
2013-06-12 16:47:00,77.4,52.5,29.47,SW,225,3.5,3.5,42,0.00,CLR,,0.00,WeatherDisplay:10.37,2013-06-12 13:47:00,
2013-06-12 16:48:00,77.4,52.5,29.47,WNW,292,2.3,2.3,42,0.00,CLR,,0.00,WeatherDisplay:10.37,2013-06-12 13:48:00,
2013-06-12 16:50:00,78.1,53.1,29.47,NNE,22,1.4,1.4,42,0.00,CLR,,0.00,WeatherDisplay:10.37,2013-06-12 13:50:00,
2013-06-12 16:51:00,78.3,53.3,29.47,NNE,22,4.0,4.0,42,0.00,CLR,,0.00,WeatherDisplay:10.37,2013-06-12 13:51:00,
2013-06-12 16:52:00,78.3,53.3,29.47,NE,45,4.6,4.6,42,0.00,CLR,,0.00,WeatherDisplay:10.37,2013-06-12 13:52:00,
2013-06-12 16:53:00,78.8,53.1,29.47,ENE,68,4.6,4.6,41,0.00,CLR,,0.00,WeatherDisplay:10.37,2013-06-12 13:53:00,
2013-06-12 16:55:00,79.9,54.1,29.47,NNE,22,3.5,3.5,41,0.00,CLR,,0.00,WeatherDisplay:10.37,2013-06-12 13:55:00,
2013-06-12 16:56:00,80.4,54.6,29.47,ESE,112,2.3,0.0,41,0.00,CLR,,0.00,WeatherDisplay:10.37,2013-06-12 13:56:00,
2013-06-12 16:57:00,81.0,55.0,29.47,ESE,112,2.3,0.0,41,0.00,CLR,,0.00,WeatherDisplay:10.37,2013-06-12 13:57:00,
2013-06-12 16:58:00,82.2,56.2,29.47,SE,135,1.2,0.0,41,0.00,CLR,,0.00,WeatherDisplay:10.37,2013-06-12 13:58:00,
2013-06-12 17:00:00,82.0,55.3,29.47,NE,45,5.8,5.8,40,0.00,CLR,,0.00,WeatherDisplay:10.37,2013-06-12 14:00:00,
2013-06-12 17:01:00,81.7,52.1,29.47,East,90,6.9,6.9,36,0.00,CLR,,0.00,WeatherDisplay:10.37,2013-06-12 14:01:00,
2013-06-12 17:02:00,81.9,52.3,29.47,South,180,6.9,6.9,36,0.00,CLR,,0.00,WeatherDisplay:10.37,2013-06-12 14:02:00,
2013-06-12 17:03:00,81.7,51.4,29.47,SSE,158,10.4,10.4,35,0.00,CLR,,0.00,WeatherDisplay:10.37,2013-06-12 14:03:00,
2013-06-12 17:05:00,81.0,50.7,29.47,ENE,68,5.8,5.8,35,0.00,CLR,,0.00,WeatherDisplay:10.37,2013-06-12 14:05:00,
2013-06-12 17:06:00,81.3,51.8,29.47,ESE,112,2.3,2.4,36,0.00,CLR,,0.00,WeatherDisplay:10.37,2013-06-12 14:06:00,
2013-06-12 17:07:00,81.3,51.8,29.47,SE,135,3.5,3.5,36,0.00,CLR,,0.00,WeatherDisplay:10.37,2013-06-12 14:07:00,
2013-06-12 17:08:00,81.5,51.2,29.47,South,180,3.5,3.5,35,0.00,CLR,,0.00,WeatherDisplay:10.37,2013-06-12 14:08:00,
2013-06-12 17:10:00,81.0,50.7,29.47,SSW,202,4.6,4.6,35,0.00,CLR,,0.00,WeatherDisplay:10.37,2013-06-12 14:10:00,
2013-06-12 17:11:00,80.8,50.6,29.47,SSW,202,4.0,4.0,35,0.00,CLR,,0.00,WeatherDisplay:10.37,2013-06-12 14:11:00,
2013-06-12 17:12:00,80.8,50.6,29.47,South,180,4.6,4.6,35,0.00,CLR,,0.00,WeatherDisplay:10.37,2013-06-12 14:12:00,
2013-06-12 17:13:00,80.8,49.8,29.47,SSW,202,3.5,3.5,34,0.00,CLR,,0.00,WeatherDisplay:10.37,2013-06-12 14:13:00,
2013-06-12 17:15:00,80.6,50.4,29.47,SSE,158,4.6,4.6,35,0.00,CLR,,0.00,WeatherDisplay:10.37,2013-06-12 14:15:00,
2013-06-12 17:16:00,80.6,50.4,29.47,SSW,202,3.6,3.6,35,0.00,CLR,,0.00,WeatherDisplay:10.37,2013-06-12 14:16:00,
2013-06-12 17:17:00,80.6,50.4,29.47,SSW,202,3.6,3.6,35,0.00,CLR,,0.00,WeatherDisplay:10.37,2013-06-12 14:17:00,
2013-06-12 17:19:00,80.8,50.6,29.47,SSW,202,4.9,4.9,35,0.00,CLR,,0.00,WeatherDisplay:10.37,2013-06-12 14:19:00,
2013-06-12 17:21:00,81.5,51.2,29.47,South,180,3.5,3.5,35,0.00,CLR,,0.00,WeatherDisplay:10.37,2013-06-12 14:21:00,
2013-06-12 17:22:00,82.6,52.2,29.47,South,180,4.6,0.0,35,0.00,CLR,,0.00,WeatherDisplay:10.37,2013-06-12 14:22:00,
2013-06-12 17:24:00,82.9,51.7,29.47,SSE,158,8.1,8.1,34,0.00,CLR,,0.00,WeatherDisplay:10.37,2013-06-12 14:24:00,
2013-06-12 17:26:00,82.2,50.2,29.47,SSE,158,8.5,8.5,33,0.00,CLR,,0.00,WeatherDisplay:10.37,2013-06-12 14:26:00,
2013-06-12 17:27:00,82.0,49.3,29.47,SSW,202,8.1,8.1,32,0.00,CLR,,0.00,WeatherDisplay:10.37,2013-06-12 14:27:00,
2013-06-12 17:28:00,82.0,49.3,29.47,SSW,202,5.8,5.8,32,0.00,CLR,,0.00,WeatherDisplay:10.37,2013-06-12 14:28:00,
2013-06-12 17:29:00,81.7,48.9,29.47,SSW,202,4.6,4.6,32,0.00,CLR,,0.00,WeatherDisplay:10.37,2013-06-12 14:29:00,
2013-06-12 17:31:00,82.0,49.3,29.47,SW,225,3.5,3.5,32,0.00,CLR,,0.00,WeatherDisplay:10.37,2013-06-12 14:31:00,
2013-06-12 17:32:00,82.6,49.7,29.47,WSW,248,3.5,3.5,32,0.00,CLR,,0.00,WeatherDisplay:10.37,2013-06-12 14:32:00,
2013-06-12 17:33:00,82.6,49.7,29.47,SW,225,3.5,3.5,32,0.00,CLR,,0.00,WeatherDisplay:10.37,2013-06-12 14:33:00,
2013-06-12 17:34:00,82.8,49.9,29.47,SSW,202,3.5,3.5,32,0.00,CLR,,0.00,WeatherDisplay:10.37,2013-06-12 14:34:00,
2013-06-12 17:37:00,82.0,49.3,29.47,SSE,158,2.6,2.9,32,0.00,CLR,,0.00,WeatherDisplay:10.37,2013-06-12 14:37:00,
2013-06-12 17:39:00,81.7,48.9,29.47,South,180,3.5,3.5,32,0.00,CLR,,0.00,WeatherDisplay:10.37,2013-06-12 14:39:00,
2013-06-12 17:42:00,81.9,49.1,29.47,WSW,248,3.5,0.0,32,0.00,CLR,,0.00,WeatherDisplay:10.37,2013-06-12 14:42:00,
2013-06-12 17:44:00,81.7,49.8,29.47,WSW,248,3.6,3.6,33,0.00,CLR,,0.00,WeatherDisplay:10.37,2013-06-12 14:44:00,
2013-06-12 17:45:00,81.1,49.3,29.47,SW,225,3.5,3.5,33,0.00,CLR,,0.00,WeatherDisplay:10.37,2013-06-12 14:45:00,
2013-06-12 17:47:00,80.4,48.7,29.47,WNW,292,4.6,4.6,33,0.00,CLR,,0.00,WeatherDisplay:10.37,2013-06-12 14:47:00,
2013-06-12 17:48:00,80.4,48.7,29.47,WNW,292,4.6,4.6,33,0.00,CLR,,0.00,WeatherDisplay:10.37,2013-06-12 14:48:00,
2013-06-12 17:49:00,80.8,49.0,29.47,NW,315,2.4,2.4,33,0.00,CLR,,0.00,WeatherDisplay:10.37,2013-06-12 14:49:00,
2013-06-12 17:50:00,81.0,49.1,29.47,NW,315,2.3,2.4,33,0.00,CLR,,0.00,WeatherDisplay:10.37,2013-06-12 14:50:00,
2013-06-12 17:52:00,81.5,49.6,29.47,West,270,2.3,2.3,33,0.00,CLR,,0.00,WeatherDisplay:10.37,2013-06-12 14:52:00,
2013-06-12 17:53:00,81.5,49.6,29.47,WSW,248,2.3,2.3,33,0.00,CLR,,0.00,WeatherDisplay:10.37,2013-06-12 14:53:00,
2013-06-12 17:54:00,81.3,49.5,29.47,WSW,248,2.6,2.6,33,0.00,CLR,,0.00,WeatherDisplay:10.37,2013-06-12 14:54:00,
2013-06-12 17:55:00,80.6,48.8,29.47,SW,225,4.6,4.6,33,0.00,CLR,,0.00,WeatherDisplay:10.37,2013-06-12 14:55:00,
2013-06-12 17:57:00,80.6,48.8,29.47,NNW,338,2.9,2.9,33,0.00,CLR,,0.00,WeatherDisplay:10.37,2013-06-12 14:57:00,
2013-06-12 17:58:00,80.6,48.8,29.47,NNW,338,2.3,2.3,33,0.00,CLR,,0.00,WeatherDisplay:10.37,2013-06-12 14:58:00,
2013-06-12 17:59:00,80.6,48.8,29.47,WNW,292,3.5,3.5,33,0.00,CLR,,0.00,WeatherDisplay:10.37,2013-06-12 14:59:00,
2013-06-12 18:00:00,81.5,48.8,29.47,West,270,3.5,3.5,32,0.00,CLR,,0.00,WeatherDisplay:10.37,2013-06-12 15:00:00,
2013-06-12 18:01:00,81.5,48.8,29.47,West,270,2.3,2.3,32,0.00,CLR,,0.00,WeatherDisplay:10.37,2013-06-12 15:01:00,
2013-06-12 18:03:00,81.5,48.8,29.47,NW,315,3.5,3.5,32,0.00,CLR,,0.00,WeatherDisplay:10.37,2013-06-12 15:03:00,
2013-06-12 18:04:00,81.3,47.8,29.47,NNW,338,4.6,4.6,31,0.00,CLR,,0.00,WeatherDisplay:10.37,2013-06-12 15:04:00,
2013-06-12 18:05:00,81.3,47.8,29.47,SSE,158,3.5,3.5,31,0.00,CLR,,0.00,WeatherDisplay:10.37,2013-06-12 15:05:00,
2013-06-12 18:06:00,81.1,47.6,29.47,SE,135,2.3,2.3,31,0.00,CLR,,0.00,WeatherDisplay:10.37,2013-06-12 15:06:00,
2013-06-12 18:08:00,81.0,47.5,29.47,West,270,6.9,6.9,31,0.00,CLR,,0.00,WeatherDisplay:10.37,2013-06-12 15:08:00,
2013-06-12 18:09:00,80.1,46.7,29.47,West,270,6.9,6.9,31,0.00,CLR,,0.00,WeatherDisplay:10.37,2013-06-12 15:09:00,
2013-06-12 18:10:00,79.7,46.4,29.47,NNW,338,8.1,8.1,31,0.00,CLR,,0.00,WeatherDisplay:10.37,2013-06-12 15:10:00,
2013-06-12 18:11:00,79.5,46.2,29.47,NNW,338,8.1,8.1,31,0.00,CLR,,0.00,WeatherDisplay:10.37,2013-06-12 15:11:00,
2013-06-12 18:13:00,79.3,46.1,29.47,NNE,22,4.6,4.6,31,0.00,CLR,,0.00,WeatherDisplay:10.37,2013-06-12 15:13:00,
2013-06-12 18:14:00,79.2,45.9,29.47,NNE,22,4.6,4.6,31,0.00,CLR,,0.00,WeatherDisplay:10.37,2013-06-12 15:14:00,
2013-06-12 18:15:00,79.0,45.8,29.47,North,0,4.6,4.6,31,0.00,CLR,,0.00,WeatherDisplay:10.37,2013-06-12 15:15:00,
2013-06-12 18:16:00,79.0,45.8,29.47,NE,45,3.5,3.5,31,0.00,CLR,,0.00,WeatherDisplay:10.37,2013-06-12 15:16:00,
2013-06-12 18:18:00,78.4,46.1,29.47,NNW,338,3.8,6.2,32,0.00,CLR,,0.00,WeatherDisplay:10.37,2013-06-12 15:18:00,
2013-06-12 18:19:00,78.4,46.1,29.47,ENE,68,8.1,8.1,32,0.00,CLR,,0.00,WeatherDisplay:10.37,2013-06-12 15:19:00,
2013-06-12 18:21:00,77.9,45.7,29.47,NNE,22,6.9,6.9,32,0.00,CLR,,0.00,WeatherDisplay:10.37,2013-06-12 15:21:00,
2013-06-12 18:23:00,77.5,46.2,29.47,NNW,338,5.4,5.4,33,0.00,CLR,,0.00,WeatherDisplay:10.37,2013-06-12 15:23:00,
2013-06-12 18:24:00,77.5,46.2,29.47,NNW,338,5.8,5.8,33,0.00,CLR,,0.00,WeatherDisplay:10.37,2013-06-12 15:24:00,
2013-06-12 18:26:00,77.4,46.0,29.47,North,0,8.1,8.1,33,0.00,CLR,,0.00,WeatherDisplay:10.37,2013-06-12 15:26:00,
2013-06-12 18:28:00,77.0,46.5,29.47,ENE,68,4.6,4.6,34,0.00,CLR,,0.00,WeatherDisplay:10.37,2013-06-12 15:28:00,
2013-06-12 18:29:00,77.0,46.5,29.47,NW,315,6.9,6.9,34,0.00,CLR,,0.00,WeatherDisplay:10.37,2013-06-12 15:29:00,
2013-06-12 18:30:00,77.0,46.5,29.47,North,0,5.0,8.0,34,0.00,CLR,,0.00,WeatherDisplay:10.37,2013-06-12 15:30:00,
2013-06-12 18:31:00,76.8,47.1,29.47,NNW,338,4.6,4.6,35,0.00,CLR,,0.00,WeatherDisplay:10.37,2013-06-12 15:31:00,
2013-06-12 18:33:00,76.5,46.8,29.47,North,0,6.9,6.9,35,0.00,CLR,,0.00,WeatherDisplay:10.37,2013-06-12 15:33:00,
2013-06-12 18:34:00,76.5,47.5,29.47,NE,45,6.9,6.9,36,0.00,CLR,,0.00,WeatherDisplay:10.37,2013-06-12 15:34:00,
2013-06-12 18:35:00,76.5,47.5,29.47,ENE,68,4.6,4.6,36,0.00,CLR,,0.00,WeatherDisplay:10.37,2013-06-12 15:35:00,
2013-06-12 18:37:00,76.6,47.7,29.47,ESE,112,4.6,4.6,36,0.00,CLR,,0.00,WeatherDisplay:10.37,2013-06-12 15:37:00,
2013-06-12 18:39:00,76.8,47.8,29.47,NNE,22,2.3,2.3,36,0.00,CLR,,0.00,WeatherDisplay:10.37,2013-06-12 15:39:00,
2013-06-12 18:40:00,76.9,47.2,29.47,NE,51,1.0,5.0,35,0.00,CLR,,0.00,WeatherDisplay:10.37,2013-06-12 15:40:00,
2013-06-12 18:42:00,77.7,47.9,29.47,ENE,68,2.3,2.3,35,0.00,CLR,,0.00,WeatherDisplay:10.37,2013-06-12 15:42:00,
2013-06-12 18:44:00,78.1,48.2,29.47,SSW,202,2.3,2.3,35,0.00,CLR,,0.00,WeatherDisplay:10.37,2013-06-12 15:44:00,
2013-06-12 18:45:00,77.7,50.1,29.47,WNW,292,9.2,9.2,38,0.00,CLR,,0.00,WeatherDisplay:10.37,2013-06-12 15:45:00,
2013-06-12 18:47:00,78.1,49.7,29.47,East,90,6.9,6.9,37,0.00,CLR,,0.00,WeatherDisplay:10.37,2013-06-12 15:47:00,
2013-06-12 18:48:00,78.1,49.7,29.47,SE,135,5.8,5.8,37,0.00,CLR,,0.00,WeatherDisplay:10.37,2013-06-12 15:48:00,
2013-06-12 18:49:00,78.1,51.1,29.47,West,270,5.8,5.8,39,0.00,CLR,,0.00,WeatherDisplay:10.37,2013-06-12 15:49:00,
2013-06-12 18:51:00,77.7,51.5,29.47,SSW,202,3.5,3.5,40,0.00,CLR,,0.00,WeatherDisplay:10.37,2013-06-12 15:51:00,
2013-06-12 18:52:00,77.5,52.0,29.47,WSW,248,2.9,2.9,41,0.00,CLR,,0.00,WeatherDisplay:10.37,2013-06-12 15:52:00,
2013-06-12 18:53:00,77.5,52.0,29.47,WSW,248,4.6,4.6,41,0.00,CLR,,0.00,WeatherDisplay:10.37,2013-06-12 15:53:00,
2013-06-12 18:54:00,77.0,51.5,29.47,West,270,4.6,4.6,41,0.00,CLR,,0.00,WeatherDisplay:10.37,2013-06-12 15:54:00,
2013-06-12 18:55:00,77.0,51.5,29.47,WSW,248,4.6,4.6,41,0.00,CLR,,0.00,WeatherDisplay:10.37,2013-06-12 15:55:00,
2013-06-12 18:56:00,76.5,51.7,29.47,West,270,3.8,4.0,42,0.00,CLR,,0.00,WeatherDisplay:10.37,2013-06-12 15:56:00,
2013-06-12 18:57:00,75.9,51.8,29.47,West,270,6.9,6.9,43,0.00,CLR,,0.00,WeatherDisplay:10.37,2013-06-12 15:57:00,
2013-06-12 18:58:00,75.9,51.8,29.47,WNW,292,5.8,5.8,43,0.00,CLR,,0.00,WeatherDisplay:10.37,2013-06-12 15:58:00,
2013-06-12 18:59:00,75.7,51.6,29.47,NW,315,3.5,3.5,43,0.00,CLR,,0.00,WeatherDisplay:10.37,2013-06-12 15:59:00,
2013-06-12 19:00:00,75.7,51.6,29.47,NW,315,3.5,3.5,43,0.00,CLR,,0.00,WeatherDisplay:10.37,2013-06-12 16:00:00,
2013-06-12 19:02:00,75.6,52.1,29.47,NNW,338,3.5,3.5,44,0.00,CLR,,0.00,WeatherDisplay:10.37,2013-06-12 16:02:00,
2013-06-12 19:03:00,75.6,52.1,29.47,NNW,338,3.5,3.5,44,0.00,CLR,,0.00,WeatherDisplay:10.37,2013-06-12 16:03:00,
2013-06-12 19:04:00,75.2,51.8,29.47,WNW,292,2.3,2.3,44,0.00,CLR,,0.00,WeatherDisplay:10.37,2013-06-12 16:04:00,
2013-06-12 19:05:00,75.2,51.8,29.47,WNW,292,3.5,3.5,44,0.00,CLR,,0.00,WeatherDisplay:10.37,2013-06-12 16:05:00,
2013-06-12 19:07:00,74.7,51.3,29.47,NW,315,5.8,5.8,44,0.00,CLR,,0.00,WeatherDisplay:10.37,2013-06-12 16:07:00,
2013-06-12 19:08:00,74.7,51.3,29.47,NNW,338,4.9,4.9,44,0.00,CLR,,0.00,WeatherDisplay:10.37,2013-06-12 16:08:00,
2013-06-12 19:09:00,74.5,51.1,29.47,NNE,22,5.8,5.8,44,0.00,CLR,,0.00,WeatherDisplay:10.37,2013-06-12 16:09:00,
2013-06-12 19:10:00,74.3,51.0,29.47,NNE,22,5.8,5.8,44,0.00,CLR,,0.00,WeatherDisplay:10.37,2013-06-12 16:10:00,
2013-06-12 19:12:00,73.9,51.3,29.47,NE,45,5.8,5.8,45,0.00,CLR,,0.00,WeatherDisplay:10.37,2013-06-12 16:12:00,
2013-06-12 19:13:00,73.9,51.3,29.47,NNE,22,4.6,4.6,45,0.00,CLR,,0.00,WeatherDisplay:10.37,2013-06-12 16:13:00,
2013-06-12 19:14:00,73.9,51.3,29.47,NNE,22,5.8,5.8,45,0.00,CLR,,0.00,WeatherDisplay:10.37,2013-06-12 16:14:00,
2013-06-12 19:15:00,73.9,50.6,29.47,NE,45,3.5,3.5,44,0.00,CLR,,0.00,WeatherDisplay:10.37,2013-06-12 16:15:00,
2013-06-12 19:17:00,73.8,51.1,29.47,NE,45,5.8,5.8,45,0.00,CLR,,0.00,WeatherDisplay:10.37,2013-06-12 16:17:00,
2013-06-12 19:18:00,73.6,50.9,29.47,North,0,5.8,5.8,45,0.00,CLR,,0.00,WeatherDisplay:10.37,2013-06-12 16:18:00,
2013-06-12 19:19:00,73.6,50.9,29.47,ENE,68,4.6,4.6,45,0.00,CLR,,0.00,WeatherDisplay:10.37,2013-06-12 16:19:00,
2013-06-12 19:20:00,73.6,50.9,29.47,NE,45,5.8,5.8,45,0.00,CLR,,0.00,WeatherDisplay:10.37,2013-06-12 16:20:00,
2013-06-12 19:22:00,73.4,50.8,29.47,ENE,68,5.8,5.8,45,0.00,CLR,,0.00,WeatherDisplay:10.37,2013-06-12 16:22:00,
2013-06-12 19:24:00,73.4,50.8,29.50,NE,45,3.5,3.5,45,0.00,CLR,,0.00,WeatherDisplay:10.37,2013-06-12 16:24:00,
2013-06-12 19:25:00,73.4,50.8,29.50,ENE,68,4.0,4.0,45,0.00,CLR,,0.00,WeatherDisplay:10.37,2013-06-12 16:25:00,
2013-06-12 19:26:00,73.4,50.8,29.50,ENE,68,4.6,4.6,45,0.00,CLR,,0.00,WeatherDisplay:10.37,2013-06-12 16:26:00,
2013-06-12 19:28:00,73.4,50.8,29.50,NE,45,2.4,2.4,45,0.00,CLR,,0.00,WeatherDisplay:10.37,2013-06-12 16:28:00,
2013-06-12 19:29:00,73.4,50.8,29.50,ENE,68,2.3,2.3,45,0.00,CLR,,0.00,WeatherDisplay:10.37,2013-06-12 16:29:00,
2013-06-12 19:30:00,73.4,50.8,29.50,ENE,68,2.3,0.0,45,0.00,CLR,,0.00,WeatherDisplay:10.37,2013-06-12 16:30:00,
2013-06-12 19:31:00,73.4,50.8,29.50,ENE,68,1.6,0.0,45,0.00,CLR,,0.00,WeatherDisplay:10.37,2013-06-12 16:31:00,
2013-06-12 19:33:00,73.4,50.8,29.50,NNE,22,2.3,2.3,45,0.00,CLR,,0.00,WeatherDisplay:10.37,2013-06-12 16:33:00,
2013-06-12 19:34:00,73.4,50.8,29.50,North,0,2.3,2.3,45,0.00,CLR,,0.00,WeatherDisplay:10.37,2013-06-12 16:34:00,
2013-06-12 19:35:00,73.4,50.8,29.50,NNW,338,3.5,3.5,45,0.00,CLR,,0.00,WeatherDisplay:10.37,2013-06-12 16:35:00,
2013-06-12 19:37:00,73.4,51.4,29.50,NW,315,4.6,4.6,46,0.00,CLR,,0.00,WeatherDisplay:10.37,2013-06-12 16:37:00,
2013-06-12 19:38:00,73.4,51.4,29.50,NNW,338,4.6,4.6,46,0.00,CLR,,0.00,WeatherDisplay:10.37,2013-06-12 16:38:00,
2013-06-12 19:39:00,73.2,51.2,29.50,NNW,338,5.6,5.6,46,0.00,CLR,,0.00,WeatherDisplay:10.37,2013-06-12 16:39:00,
2013-06-12 19:40:00,73.2,51.2,29.50,NNW,338,5.8,5.8,46,0.00,CLR,,0.00,WeatherDisplay:10.37,2013-06-12 16:40:00,
2013-06-12 19:43:00,73.2,51.2,29.50,NNW,338,2.9,0.0,46,0.00,CLR,,0.00,WeatherDisplay:10.37,2013-06-12 16:43:00,
2013-06-12 19:44:00,73.0,51.0,29.50,NNE,22,5.8,5.8,46,0.00,CLR,,0.00,WeatherDisplay:10.37,2013-06-12 16:44:00,
2013-06-12 19:45:00,73.0,51.0,29.50,NNE,22,4.6,4.6,46,0.00,CLR,,0.00,WeatherDisplay:10.37,2013-06-12 16:45:00,
2013-06-12 19:46:00,73.0,51.0,29.50,NNE,22,4.6,4.6,46,0.00,CLR,,0.00,WeatherDisplay:10.37,2013-06-12 16:46:00,
2013-06-12 19:48:00,73.0,51.0,29.50,NNW,338,4.6,4.6,46,0.00,CLR,,0.00,WeatherDisplay:10.37,2013-06-12 16:48:00,
2013-06-12 19:49:00,72.9,52.0,29.50,North,0,5.8,5.8,48,0.00,CLR,,0.00,WeatherDisplay:10.37,2013-06-12 16:49:00,
2013-06-12 19:50:00,72.9,52.0,29.50,NNW,338,4.0,4.0,48,0.00,CLR,,0.00,WeatherDisplay:10.37,2013-06-12 16:50:00,
2013-06-12 19:51:00,72.9,52.0,29.50,NE,45,4.6,4.6,48,0.00,CLR,,0.00,WeatherDisplay:10.37,2013-06-12 16:51:00,
2013-06-12 19:53:00,72.9,52.0,29.50,NNW,338,2.3,2.3,48,0.00,CLR,,0.00,WeatherDisplay:10.37,2013-06-12 16:53:00,
2013-06-12 19:54:00,72.9,52.0,29.50,NNW,338,3.3,3.3,48,0.00,CLR,,0.00,WeatherDisplay:10.37,2013-06-12 16:54:00,
2013-06-12 19:56:00,72.9,52.0,29.50,NNW,338,5.8,5.8,48,0.00,CLR,,0.00,WeatherDisplay:10.37,2013-06-12 16:56:00,
2013-06-12 19:58:00,72.7,50.7,29.50,North,0,6.0,6.0,46,0.00,CLR,,0.00,WeatherDisplay:10.37,2013-06-12 16:58:00,
2013-06-12 19:59:00,72.7,50.7,29.50,NNW,338,5.8,5.8,46,0.00,CLR,,0.00,WeatherDisplay:10.37,2013-06-12 16:59:00,
2013-06-12 20:00:00,72.7,50.7,29.50,NNE,22,5.8,5.8,46,0.00,CLR,,0.00,WeatherDisplay:10.37,2013-06-12 17:00:00,
2013-06-12 20:01:00,72.7,50.7,29.50,NNW,338,5.8,5.8,46,0.00,CLR,,0.00,WeatherDisplay:10.37,2013-06-12 17:01:00,
2013-06-12 20:03:00,72.7,49.5,29.50,NW,315,4.6,4.6,44,0.00,CLR,,0.00,WeatherDisplay:10.37,2013-06-12 17:03:00,
2013-06-12 20:04:00,72.7,49.5,29.50,WNW,292,6.2,6.2,44,0.00,CLR,,0.00,WeatherDisplay:10.37,2013-06-12 17:04:00,
2013-06-12 20:05:00,72.7,49.5,29.50,NNW,337,5.0,6.0,44,0.00,CLR,,0.00,WeatherDisplay:10.37,2013-06-12 17:05:00,
2013-06-12 20:06:00,72.7,48.9,29.50,North,0,6.2,6.2,43,0.00,CLR,,0.00,WeatherDisplay:10.37,2013-06-12 17:06:00,
2013-06-12 20:07:00,72.7,48.9,29.50,NNW,338,6.9,6.9,43,0.00,CLR,,0.00,WeatherDisplay:10.37,2013-06-12 17:07:00,
2013-06-12 20:08:00,72.5,48.7,29.50,NW,315,5.8,5.8,43,0.00,CLR,,0.00,WeatherDisplay:10.37,2013-06-12 17:08:00,
2013-06-12 20:09:00,72.5,48.7,29.50,WNW,292,6.2,6.2,43,0.00,CLR,,0.00,WeatherDisplay:10.37,2013-06-12 17:09:00,
2013-06-12 20:10:00,72.5,48.7,29.50,NNW,338,5.8,5.8,43,0.00,CLR,,0.00,WeatherDisplay:10.37,2013-06-12 17:10:00,
2013-06-12 20:11:00,72.3,48.6,29.50,NW,315,5.8,5.8,43,0.00,CLR,,0.00,WeatherDisplay:10.37,2013-06-12 17:11:00,
2013-06-12 20:12:00,72.5,48.7,29.50,NW,315,2.9,2.9,43,0.00,CLR,,0.00,WeatherDisplay:10.37,2013-06-12 17:12:00,
2013-06-12 20:13:00,72.5,48.7,29.50,NNW,338,4.6,4.6,43,0.00,CLR,,0.00,WeatherDisplay:10.37,2013-06-12 17:13:00,
2013-06-12 20:15:00,72.3,48.6,29.50,NW,315,5.8,5.8,43,0.00,CLR,,0.00,WeatherDisplay:10.37,2013-06-12 17:15:00,
2013-06-12 20:17:00,72.3,48.6,29.50,NNW,338,5.8,5.8,43,0.00,CLR,,0.00,WeatherDisplay:10.37,2013-06-12 17:17:00,
2013-06-12 20:19:00,72.1,48.4,29.50,NNW,338,5.8,5.8,43,0.00,CLR,,0.00,WeatherDisplay:10.37,2013-06-12 17:19:00,
2013-06-12 20:20:00,72.1,48.4,29.50,WNW,292,4.3,4.3,43,0.00,CLR,,0.00,WeatherDisplay:10.37,2013-06-12 17:20:00,
2013-06-12 20:22:00,72.3,48.6,29.50,WNW,292,7.1,7.1,43,0.00,CLR,,0.00,WeatherDisplay:10.37,2013-06-12 17:22:00,
2013-06-12 20:23:00,72.3,48.6,29.50,West,270,6.9,6.9,43,0.00,CLR,,0.00,WeatherDisplay:10.37,2013-06-12 17:23:00,
2013-06-12 20:24:00,72.3,48.6,29.50,West,270,9.2,9.2,43,0.00,CLR,,0.00,WeatherDisplay:10.37,2013-06-12 17:24:00,
2013-06-12 20:25:00,72.0,47.0,29.50,NNW,338,10.4,10.4,41,0.00,CLR,,0.00,WeatherDisplay:10.37,2013-06-12 17:25:00,
2013-06-12 20:26:00,72.0,47.0,29.50,NW,315,10.4,10.4,41,0.00,CLR,,0.00,WeatherDisplay:10.37,2013-06-12 17:26:00,
2013-06-12 20:27:00,72.0,47.0,29.50,NNW,338,8.1,8.1,41,0.00,CLR,,0.00,WeatherDisplay:10.37,2013-06-12 17:27:00,
2013-06-12 20:28:00,71.8,46.8,29.50,NNW,338,10.4,10.4,41,0.00,CLR,,0.00,WeatherDisplay:10.37,2013-06-12 17:28:00,
2013-06-12 20:29:00,71.8,46.8,29.50,NNW,338,11.5,11.5,41,0.00,CLR,,0.00,WeatherDisplay:10.37,2013-06-12 17:29:00,
2013-06-12 20:30:00,71.6,46.0,29.50,WNW,292,11.5,11.5,40,0.00,CLR,,0.00,WeatherDisplay:10.37,2013-06-12 17:30:00,
2013-06-12 20:31:00,71.6,46.0,29.50,NNW,338,9.2,9.2,40,0.00,CLR,,0.00,WeatherDisplay:10.37,2013-06-12 17:31:00,
2013-06-12 20:32:00,71.6,46.6,29.50,WNW,292,9.2,9.2,41,0.00,CLR,,0.00,WeatherDisplay:10.37,2013-06-12 17:32:00,
2013-06-12 20:33:00,71.6,46.6,29.50,NNW,338,3.8,3.8,41,0.00,CLR,,0.00,WeatherDisplay:10.37,2013-06-12 17:33:00,
2013-06-12 20:34:00,71.4,46.5,29.50,WNW,292,10.4,10.4,41,0.00,CLR,,0.00,WeatherDisplay:10.37,2013-06-12 17:34:00,
2013-06-12 20:35:00,71.4,47.1,29.50,NW,315,10.4,10.4,42,0.00,CLR,,0.00,WeatherDisplay:10.37,2013-06-12 17:35:00,
2013-06-12 20:36:00,71.2,47.0,29.50,NNW,338,8.1,8.1,42,0.00,CLR,,0.00,WeatherDisplay:10.37,2013-06-12 17:36:00,
2013-06-12 20:37:00,71.1,47.4,29.50,NW,315,9.2,9.2,43,0.00,CLR,,0.00,WeatherDisplay:10.37,2013-06-12 17:37:00,
2013-06-12 20:38:00,71.1,47.4,29.50,North,0,9.2,9.2,43,0.00,CLR,,0.00,WeatherDisplay:10.37,2013-06-12 17:38:00,
2013-06-12 20:39:00,70.7,47.1,29.50,NNW,338,4.6,4.6,43,0.00,CLR,,0.00,WeatherDisplay:10.37,2013-06-12 17:39:00,
2013-06-12 20:40:00,70.5,46.9,29.50,NNW,338,4.6,4.6,43,0.00,CLR,,0.00,WeatherDisplay:10.37,2013-06-12 17:40:00,
2013-06-12 20:42:00,70.3,47.4,29.50,NNW,338,7.4,7.4,44,0.00,CLR,,0.00,WeatherDisplay:10.37,2013-06-12 17:42:00,
2013-06-12 20:43:00,70.3,47.4,29.50,WNW,292,5.8,5.9,44,0.00,CLR,,0.00,WeatherDisplay:10.37,2013-06-12 17:43:00,
2013-06-12 20:44:00,70.2,47.2,29.50,North,0,5.8,5.8,44,0.00,CLR,,0.00,WeatherDisplay:10.37,2013-06-12 17:44:00,
2013-06-12 20:45:00,70.0,47.1,29.50,NNE,22,7.4,7.4,44,0.00,CLR,,0.00,WeatherDisplay:10.37,2013-06-12 17:45:00,
2013-06-12 20:48:00,69.8,47.5,29.50,NNW,338,6.9,6.9,45,0.00,CLR,,0.00,WeatherDisplay:10.37,2013-06-12 17:48:00,
2013-06-12 20:49:00,69.6,47.3,29.50,North,0,8.1,8.1,45,0.00,CLR,,0.00,WeatherDisplay:10.37,2013-06-12 17:49:00,
2013-06-12 20:50:00,69.4,47.8,29.50,NNW,338,8.1,8.1,46,0.00,CLR,,0.00,WeatherDisplay:10.37,2013-06-12 17:50:00,
2013-06-12 20:51:00,69.4,48.3,29.50,WNW,292,9.7,9.7,47,0.00,CLR,,0.00,WeatherDisplay:10.37,2013-06-12 17:51:00,
2013-06-12 20:53:00,68.9,48.4,29.50,NNE,22,8.1,8.1,48,0.00,CLR,,0.00,WeatherDisplay:10.37,2013-06-12 17:53:00,
2013-06-12 20:54:00,68.7,48.8,29.53,NW,315,8.7,8.7,49,0.00,CLR,,0.00,WeatherDisplay:10.37,2013-06-12 17:54:00,
2013-06-12 20:55:00,68.7,48.8,29.53,NW,315,9.2,9.2,49,0.00,CLR,,0.00,WeatherDisplay:10.37,2013-06-12 17:55:00,
2013-06-12 20:56:00,68.7,49.3,29.53,WNW,292,5.8,5.8,50,0.00,CLR,,0.00,WeatherDisplay:10.37,2013-06-12 17:56:00,
2013-06-12 20:58:00,68.5,49.2,29.53,NNE,22,5.8,5.8,50,0.00,CLR,,0.00,WeatherDisplay:10.37,2013-06-12 17:58:00,
2013-06-12 21:00:00,68.4,49.5,29.53,NNW,338,4.6,4.6,51,0.00,CLR,,0.00,WeatherDisplay:10.37,2013-06-12 18:00:00,
2013-06-12 21:01:00,68.2,49.4,29.53,NW,315,3.5,3.5,51,0.00,CLR,,0.00,WeatherDisplay:10.37,2013-06-12 18:01:00,
2013-06-12 21:03:00,68.2,50.4,29.53,North,0,5.6,5.6,53,0.00,CLR,,0.00,WeatherDisplay:10.37,2013-06-12 18:03:00,
2013-06-12 21:05:00,68.0,50.7,29.53,NNW,338,5.8,5.8,54,0.00,CLR,,0.00,WeatherDisplay:10.37,2013-06-12 18:05:00,
2013-06-12 21:06:00,67.8,51.1,29.53,NNW,338,5.9,5.9,55,0.00,CLR,,0.00,WeatherDisplay:10.37,2013-06-12 18:06:00,
2013-06-12 21:08:00,67.8,51.1,29.53,North,0,4.6,4.6,55,0.00,CLR,,0.00,WeatherDisplay:10.37,2013-06-12 18:08:00,
2013-06-12 21:10:00,67.6,50.9,29.50,NNW,338,4.6,0.0,55,0.00,CLR,,0.00,WeatherDisplay:10.37,2013-06-12 18:10:00,
2013-06-12 21:11:00,67.6,50.9,29.50,North,0,4.6,4.6,55,0.00,CLR,,0.00,WeatherDisplay:10.37,2013-06-12 18:11:00,
2013-06-12 21:13:00,67.5,51.2,29.50,NNE,22,4.6,4.6,56,0.00,CLR,,0.00,WeatherDisplay:10.37,2013-06-12 18:13:00,
2013-06-12 21:15:00,67.5,51.2,29.50,NNE,22,4.0,4.0,56,0.00,CLR,,0.00,WeatherDisplay:10.37,2013-06-12 18:15:00,
2013-06-12 21:16:00,67.5,51.2,29.50,NE,45,2.9,2.9,56,0.00,CLR,,0.00,WeatherDisplay:10.37,2013-06-12 18:16:00,
2013-06-12 21:18:00,67.3,51.0,29.50,NE,45,3.5,0.0,56,0.00,CLR,,0.00,WeatherDisplay:10.37,2013-06-12 18:18:00,
2013-06-12 21:20:00,67.3,51.0,29.50,NE,45,1.2,0.0,56,0.00,CLR,,0.00,WeatherDisplay:10.37,2013-06-12 18:20:00,
2013-06-12 21:21:00,67.3,51.0,29.50,ENE,68,2.2,0.0,56,0.00,CLR,,0.00,WeatherDisplay:10.37,2013-06-12 18:21:00,
2013-06-12 21:23:00,67.3,50.6,29.50,ENE,68,2.3,2.3,55,0.00,CLR,,0.00,WeatherDisplay:10.37,2013-06-12 18:23:00,
2013-06-12 21:25:00,67.3,50.6,29.50,ENE,68,1.2,1.2,55,0.00,CLR,,0.00,WeatherDisplay:10.37,2013-06-12 18:25:00,
2013-06-12 21:26:00,67.3,50.6,29.50,ENE,68,0.0,0.0,55,0.00,CLR,,0.00,WeatherDisplay:10.37,2013-06-12 18:26:00,
2013-06-12 21:27:00,67.3,50.6,29.50,ENE,68,0.0,0.0,55,0.00,CLR,,0.00,WeatherDisplay:10.37,2013-06-12 18:27:00,
2013-06-12 21:28:00,67.3,50.6,29.50,ENE,68,2.3,0.0,55,0.00,CLR,,0.00,WeatherDisplay:10.37,2013-06-12 18:28:00,
2013-06-12 21:30:00,67.3,50.6,29.50,ENE,68,2.3,2.3,55,0.00,CLR,,0.00,WeatherDisplay:10.37,2013-06-12 18:30:00,
2013-06-12 21:31:00,67.3,50.6,29.50,ENE,68,2.3,2.3,55,0.00,CLR,,0.00,WeatherDisplay:10.37,2013-06-12 18:31:00,
2013-06-12 21:32:00,67.3,50.6,29.50,ENE,68,1.2,0.0,55,0.00,CLR,,0.00,WeatherDisplay:10.37,2013-06-12 18:32:00,
2013-06-12 21:34:00,67.3,50.6,29.50,NE,45,2.3,2.3,55,0.00,CLR,,0.00,WeatherDisplay:10.37,2013-06-12 18:34:00,
2013-06-12 21:35:00,67.3,50.6,29.50,NE,45,2.3,0.0,55,0.00,CLR,,0.00,WeatherDisplay:10.37,2013-06-12 18:35:00,
2013-06-12 21:36:00,67.3,50.6,29.50,NE,45,2.3,0.0,55,0.00,CLR,,0.00,WeatherDisplay:10.37,2013-06-12 18:36:00,
2013-06-12 21:37:00,67.3,50.6,29.50,NE,45,0.0,0.0,55,0.00,CLR,,0.00,WeatherDisplay:10.37,2013-06-12 18:37:00,
2013-06-12 21:39:00,67.3,50.6,29.50,NE,45,0.0,0.0,55,0.00,CLR,,0.00,WeatherDisplay:10.37,2013-06-12 18:39:00,
2013-06-12 21:41:00,67.3,50.6,29.50,NNW,338,3.6,3.6,55,0.00,CLR,,0.00,WeatherDisplay:10.37,2013-06-12 18:41:00,
2013-06-12 21:42:00,67.3,51.0,29.50,NW,315,3.5,3.5,56,0.00,CLR,,0.00,WeatherDisplay:10.37,2013-06-12 18:42:00,
2013-06-12 21:44:00,67.5,51.7,29.50,NW,315,3.5,3.5,57,0.00,CLR,,0.00,WeatherDisplay:10.37,2013-06-12 18:44:00,
2013-06-12 21:46:00,67.5,51.7,29.50,NNW,338,2.3,2.3,57,0.00,CLR,,0.00,WeatherDisplay:10.37,2013-06-12 18:46:00,
2013-06-12 21:47:00,67.5,53.1,29.50,NNW,338,3.6,3.6,60,0.00,CLR,,0.00,WeatherDisplay:10.37,2013-06-12 18:47:00,
2013-06-12 21:49:00,67.3,52.5,29.50,NNW,338,3.5,3.5,59,0.00,CLR,,0.00,WeatherDisplay:10.37,2013-06-12 18:49:00,
2013-06-12 21:51:00,67.3,52.9,29.50,NNW,338,3.5,3.5,60,0.00,CLR,,0.00,WeatherDisplay:10.37,2013-06-12 18:51:00,
2013-06-12 21:52:00,67.3,52.9,29.50,NW,315,4.6,4.6,60,0.00,CLR,,0.00,WeatherDisplay:10.37,2013-06-12 18:52:00,
2013-06-12 21:53:00,67.1,52.7,29.50,NW,315,3.5,3.5,60,0.00,CLR,,0.00,WeatherDisplay:10.37,2013-06-12 18:53:00,
2013-06-12 21:54:00,67.1,52.7,29.50,NNW,338,1.6,1.6,60,0.00,CLR,,0.00,WeatherDisplay:10.37,2013-06-12 18:54:00,
2013-06-12 21:56:00,67.1,53.2,29.50,NNW,338,2.3,2.3,61,0.00,CLR,,0.00,WeatherDisplay:10.37,2013-06-12 18:56:00,
2013-06-12 21:57:00,66.9,53.0,29.50,NNW,338,2.3,2.3,61,0.00,CLR,,0.00,WeatherDisplay:10.37,2013-06-12 18:57:00,
2013-06-12 21:59:00,66.9,53.0,29.50,NNW,338,0.0,0.0,61,0.00,CLR,,0.00,WeatherDisplay:10.37,2013-06-12 18:59:00,
2013-06-12 22:01:00,66.9,53.0,29.50,NNW,338,2.3,2.3,61,0.00,CLR,,0.00,WeatherDisplay:10.37,2013-06-12 19:01:00,
2013-06-12 22:02:00,66.9,52.6,29.50,North,0,2.3,2.3,60,0.00,CLR,,0.00,WeatherDisplay:10.37,2013-06-12 19:02:00,
2013-06-12 22:03:00,66.9,53.0,29.50,NNE,22,1.6,1.6,61,0.00,CLR,,0.00,WeatherDisplay:10.37,2013-06-12 19:03:00,
2013-06-12 22:04:00,66.9,53.5,29.50,NNE,22,3.5,3.5,62,0.00,CLR,,0.00,WeatherDisplay:10.37,2013-06-12 19:04:00,
2013-06-12 22:06:00,66.7,52.9,29.50,ESE,112,2.3,2.3,61,0.00,CLR,,0.00,WeatherDisplay:10.37,2013-06-12 19:06:00,
2013-06-12 22:07:00,66.7,52.9,29.50,ESE,112,2.3,2.3,61,0.00,CLR,,0.00,WeatherDisplay:10.37,2013-06-12 19:07:00,
2013-06-12 22:08:00,66.7,52.9,29.50,ESE,112,1.2,0.0,61,0.00,CLR,,0.00,WeatherDisplay:10.37,2013-06-12 19:08:00,
2013-06-12 22:09:00,66.7,52.9,29.50,ENE,68,1.6,1.6,61,0.00,CLR,,0.00,WeatherDisplay:10.37,2013-06-12 19:09:00,
2013-06-12 22:11:00,66.7,52.9,29.50,NNE,22,3.5,3.5,61,0.00,CLR,,0.00,WeatherDisplay:10.37,2013-06-12 19:11:00,
2013-06-12 22:12:00,66.7,52.4,29.50,NE,45,3.5,3.5,60,0.00,CLR,,0.00,WeatherDisplay:10.37,2013-06-12 19:12:00,
2013-06-12 22:13:00,66.7,52.4,29.50,ENE,68,2.4,2.4,60,0.00,CLR,,0.00,WeatherDisplay:10.37,2013-06-12 19:13:00,
2013-06-12 22:14:00,66.7,52.4,29.50,NE,45,3.1,3.1,60,0.00,CLR,,0.00,WeatherDisplay:10.37,2013-06-12 19:14:00,
2013-06-12 22:16:00,66.7,51.5,29.50,NE,45,3.5,3.5,58,0.00,CLR,,0.00,WeatherDisplay:10.37,2013-06-12 19:16:00,
2013-06-12 22:17:00,66.7,51.5,29.50,ENE,68,3.5,3.5,58,0.00,CLR,,0.00,WeatherDisplay:10.37,2013-06-12 19:17:00,
2013-06-12 22:18:00,66.7,51.0,29.50,ENE,68,4.6,4.6,57,0.00,CLR,,0.00,WeatherDisplay:10.37,2013-06-12 19:18:00,
2013-06-12 22:19:00,66.9,51.2,29.50,ENE,68,4.6,4.6,57,0.00,CLR,,0.00,WeatherDisplay:10.37,2013-06-12 19:19:00,
2013-06-12 22:20:00,66.9,51.2,29.50,ENE,68,4.6,4.6,57,0.00,CLR,,0.00,WeatherDisplay:10.37,2013-06-12 19:20:00,
2013-06-12 22:21:00,66.9,51.2,29.50,NE,45,3.3,3.3,57,0.00,CLR,,0.00,WeatherDisplay:10.37,2013-06-12 19:21:00,
2013-06-12 22:22:00,66.9,50.7,29.50,NE,45,3.5,3.5,56,0.00,CLR,,0.00,WeatherDisplay:10.37,2013-06-12 19:22:00,
2013-06-12 22:24:00,66.9,50.7,29.50,NE,45,3.5,3.5,56,0.00,CLR,,0.00,WeatherDisplay:10.37,2013-06-12 19:24:00,
2013-06-12 22:25:00,66.8,50.6,29.50,ENE,60,1.0,4.0,56,0.00,CLR,,0.00,WeatherDisplay:10.37,2013-06-12 19:25:00,
2013-06-12 22:27:00,66.9,49.7,29.50,North,0,2.3,2.4,54,0.00,CLR,,0.00,WeatherDisplay:10.37,2013-06-12 19:27:00,
2013-06-12 22:29:00,66.9,49.7,29.50,NNW,338,3.5,3.5,54,0.00,CLR,,0.00,WeatherDisplay:10.37,2013-06-12 19:29:00,
2013-06-12 22:30:00,66.9,49.7,29.50,NNW,338,2.3,2.3,54,0.00,CLR,,0.00,WeatherDisplay:10.37,2013-06-12 19:30:00,
2013-06-12 22:32:00,66.9,49.7,29.50,North,0,2.3,2.3,54,0.00,CLR,,0.00,WeatherDisplay:10.37,2013-06-12 19:32:00,
2013-06-12 22:34:00,67.1,49.9,29.50,WNW,292,4.6,4.6,54,0.00,CLR,,0.00,WeatherDisplay:10.37,2013-06-12 19:34:00,
2013-06-12 22:36:00,67.1,49.9,29.50,NW,315,4.6,4.6,54,0.00,CLR,,0.00,WeatherDisplay:10.37,2013-06-12 19:36:00,
2013-06-12 22:37:00,67.3,50.1,29.50,NNW,338,9.2,9.2,54,0.00,CLR,,0.00,WeatherDisplay:10.37,2013-06-12 19:37:00,
2013-06-12 22:38:00,67.3,50.1,29.50,North,0,6.9,6.9,54,0.00,CLR,,0.00,WeatherDisplay:10.37,2013-06-12 19:38:00,
2013-06-12 22:39:00,67.3,50.6,29.50,NNW,338,6.9,6.9,55,0.00,CLR,,0.00,WeatherDisplay:10.37,2013-06-12 19:39:00,
2013-06-12 22:41:00,67.5,50.7,29.50,NNW,338,6.9,6.9,55,0.00,CLR,,0.00,WeatherDisplay:10.37,2013-06-12 19:41:00,
2013-06-12 22:42:00,67.3,50.6,29.50,NNE,22,6.9,6.9,55,0.00,CLR,,0.00,WeatherDisplay:10.37,2013-06-12 19:42:00,
2013-06-12 22:43:00,67.5,50.7,29.50,NNW,338,5.8,5.8,55,0.00,CLR,,0.00,WeatherDisplay:10.37,2013-06-12 19:43:00,
2013-06-12 22:44:00,67.5,50.7,29.50,North,0,5.8,5.8,55,0.00,CLR,,0.00,WeatherDisplay:10.37,2013-06-12 19:44:00,
2013-06-12 22:46:00,67.3,50.1,29.50,NNW,338,6.9,6.9,54,0.00,CLR,,0.00,WeatherDisplay:10.37,2013-06-12 19:46:00,
2013-06-12 22:47:00,67.3,50.1,29.50,NNE,22,4.6,4.6,54,0.00,CLR,,0.00,WeatherDisplay:10.37,2013-06-12 19:47:00,
2013-06-12 22:48:00,67.3,50.1,29.50,North,0,4.6,4.6,54,0.00,CLR,,0.00,WeatherDisplay:10.37,2013-06-12 19:48:00,
2013-06-12 22:49:00,67.3,49.6,29.50,North,0,3.5,3.5,53,0.00,CLR,,0.00,WeatherDisplay:10.37,2013-06-12 19:49:00,
2013-06-12 22:51:00,67.3,49.6,29.50,ENE,68,7.4,7.4,53,0.00,CLR,,0.00,WeatherDisplay:10.37,2013-06-12 19:51:00,
2013-06-12 22:52:00,67.3,48.5,29.50,NNE,22,6.9,6.9,51,0.00,CLR,,0.00,WeatherDisplay:10.37,2013-06-12 19:52:00,
2013-06-12 22:54:00,67.3,48.5,29.53,NNE,22,5.8,5.8,51,0.00,CLR,,0.00,WeatherDisplay:10.37,2013-06-12 19:54:00,
2013-06-12 22:55:00,67.3,48.0,29.53,North,0,4.6,4.6,50,0.00,CLR,,0.00,WeatherDisplay:10.37,2013-06-12 19:55:00,
2013-06-12 22:56:00,67.3,48.0,29.53,NNW,338,5.8,5.8,50,0.00,CLR,,0.00,WeatherDisplay:10.37,2013-06-12 19:56:00,
2013-06-12 22:57:00,67.5,48.7,29.53,NNE,22,7.4,7.4,51,0.00,CLR,,0.00,WeatherDisplay:10.37,2013-06-12 19:57:00,
2013-06-12 22:59:00,67.5,47.6,29.53,NE,45,8.1,8.1,49,0.00,CLR,,0.00,WeatherDisplay:10.37,2013-06-12 19:59:00,
2013-06-12 23:00:00,67.5,47.6,29.53,NNW,338,9.2,9.2,49,0.00,CLR,,0.00,WeatherDisplay:10.37,2013-06-12 20:00:00,
2013-06-12 23:01:00,67.6,47.2,29.53,NNW,338,9.2,9.2,48,0.00,CLR,,0.00,WeatherDisplay:10.37,2013-06-12 20:01:00,
2013-06-12 23:03:00,67.6,47.2,29.53,NNW,338,8.1,8.1,48,0.00,CLR,,0.00,WeatherDisplay:10.37,2013-06-12 20:03:00,
2013-06-12 23:04:00,67.6,47.2,29.53,NNE,22,8.1,8.1,48,0.00,CLR,,0.00,WeatherDisplay:10.37,2013-06-12 20:04:00,
2013-06-12 23:05:00,67.6,47.2,29.53,NW,315,8.1,8.1,48,0.00,CLR,,0.00,WeatherDisplay:10.37,2013-06-12 20:05:00,
2013-06-12 23:06:00,67.6,47.2,29.53,NNW,338,8.1,8.1,48,0.00,CLR,,0.00,WeatherDisplay:10.37,2013-06-12 20:06:00,
2013-06-12 23:07:00,67.6,47.2,29.53,NNE,22,8.1,8.1,48,0.00,CLR,,0.00,WeatherDisplay:10.37,2013-06-12 20:07:00,
2013-06-12 23:08:00,67.8,47.4,29.53,North,0,10.4,10.4,48,0.00,CLR,,0.00,WeatherDisplay:10.37,2013-06-12 20:08:00,
2013-06-12 23:09:00,67.8,46.8,29.53,WNW,292,11.5,11.5,47,0.00,CLR,,0.00,WeatherDisplay:10.37,2013-06-12 20:09:00,
2013-06-12 23:10:00,67.8,46.8,29.53,NNW,341,7.0,12.0,47,0.00,CLR,,0.00,WeatherDisplay:10.37,2013-06-12 20:10:00,
2013-06-12 23:11:00,67.8,46.8,29.53,North,0,12.7,12.7,47,0.00,CLR,,0.00,WeatherDisplay:10.37,2013-06-12 20:11:00,
2013-06-12 23:12:00,67.8,46.8,29.53,NNW,338,12.7,12.7,47,0.00,CLR,,0.00,WeatherDisplay:10.37,2013-06-12 20:12:00,
2013-06-12 23:13:00,67.8,46.8,29.53,NW,315,6.9,6.9,47,0.00,CLR,,0.00,WeatherDisplay:10.37,2013-06-12 20:13:00,
2013-06-12 23:14:00,68.0,46.4,29.53,NNW,338,8.1,8.1,46,0.00,CLR,,0.00,WeatherDisplay:10.37,2013-06-12 20:14:00,
2013-06-12 23:15:00,68.0,46.4,29.53,North,0,5.9,5.9,46,0.00,CLR,,0.00,WeatherDisplay:10.37,2013-06-12 20:15:00,
2013-06-12 23:16:00,68.0,46.4,29.53,NNW,338,6.9,6.9,46,0.00,CLR,,0.00,WeatherDisplay:10.37,2013-06-12 20:16:00,
2013-06-12 23:17:00,68.0,46.4,29.53,NNE,22,6.9,6.9,46,0.00,CLR,,0.00,WeatherDisplay:10.37,2013-06-12 20:17:00,
2013-06-12 23:18:00,68.0,46.4,29.53,NW,315,5.9,5.9,46,0.00,CLR,,0.00,WeatherDisplay:10.37,2013-06-12 20:18:00,
2013-06-12 23:19:00,68.0,46.4,29.53,NNE,22,6.9,6.9,46,0.00,CLR,,0.00,WeatherDisplay:10.37,2013-06-12 20:19:00,
2013-06-12 23:20:00,68.0,47.0,29.53,NNW,338,8.7,8.7,47,0.00,CLR,,0.00,WeatherDisplay:10.37,2013-06-12 20:20:00,
2013-06-12 23:22:00,68.2,47.2,29.53,NNE,22,9.2,9.2,47,0.00,CLR,,0.00,WeatherDisplay:10.37,2013-06-12 20:22:00,
2013-06-12 23:23:00,68.2,47.2,29.53,NNW,338,8.1,8.1,47,0.00,CLR,,0.00,WeatherDisplay:10.37,2013-06-12 20:23:00,
2013-06-12 23:24:00,68.2,47.2,29.53,NNW,338,10.4,10.4,47,0.00,CLR,,0.00,WeatherDisplay:10.37,2013-06-12 20:24:00,
2013-06-12 23:26:00,68.2,47.2,29.53,NNW,338,10.4,10.4,47,0.00,CLR,,0.00,WeatherDisplay:10.37,2013-06-12 20:26:00,
2013-06-12 23:27:00,68.4,47.3,29.53,NNE,22,10.5,10.5,47,0.00,CLR,,0.00,WeatherDisplay:10.37,2013-06-12 20:27:00,
2013-06-12 23:28:00,68.4,47.3,29.53,North,0,6.9,7.1,47,0.00,CLR,,0.00,WeatherDisplay:10.37,2013-06-12 20:28:00,
2013-06-12 23:29:00,68.4,46.8,29.53,NNE,22,12.7,12.7,46,0.00,CLR,,0.00,WeatherDisplay:10.37,2013-06-12 20:29:00,
2013-06-12 23:32:00,68.4,46.8,29.53,NNW,338,8.1,8.1,46,0.00,CLR,,0.00,WeatherDisplay:10.37,2013-06-12 20:32:00,
2013-06-12 23:33:00,68.4,46.2,29.53,NNW,338,9.0,9.0,45,0.00,CLR,,0.00,WeatherDisplay:10.37,2013-06-12 20:33:00,
2013-06-12 23:35:00,68.5,46.3,29.53,NNW,338,9.2,9.2,45,0.00,CLR,,0.00,WeatherDisplay:10.37,2013-06-12 20:35:00,
2013-06-12 23:37:00,68.5,45.8,29.53,NNW,338,10.4,10.4,44,0.00,CLR,,0.00,WeatherDisplay:10.37,2013-06-12 20:37:00,
2013-06-12 23:38:00,68.5,45.8,29.53,North,0,5.8,5.8,44,0.00,CLR,,0.00,WeatherDisplay:10.37,2013-06-12 20:38:00,
2013-06-12 23:39:00,68.7,45.9,29.53,NW,315,6.9,6.9,44,0.00,CLR,,0.00,WeatherDisplay:10.37,2013-06-12 20:39:00,
2013-06-12 23:40:00,68.7,45.9,29.53,NNW,338,5.8,5.8,44,0.00,CLR,,0.00,WeatherDisplay:10.37,2013-06-12 20:40:00,
2013-06-12 23:42:00,68.5,45.8,29.53,North,0,9.2,9.2,44,0.00,CLR,,0.00,WeatherDisplay:10.37,2013-06-12 20:42:00,
2013-06-12 23:43:00,68.5,45.8,29.53,NNE,22,9.2,9.2,44,0.00,CLR,,0.00,WeatherDisplay:10.37,2013-06-12 20:43:00,
2013-06-12 23:44:00,68.5,45.8,29.53,NNE,22,6.9,6.9,44,0.00,CLR,,0.00,WeatherDisplay:10.37,2013-06-12 20:44:00,
2013-06-12 23:45:00,68.5,45.8,29.53,NNW,338,6.9,6.9,44,0.00,CLR,,0.00,WeatherDisplay:10.37,2013-06-12 20:45:00,
2013-06-12 23:48:00,68.5,45.8,29.53,North,0,5.8,5.8,44,0.00,CLR,,0.00,WeatherDisplay:10.37,2013-06-12 20:48:00,
2013-06-12 23:49:00,68.7,45.9,29.53,NNW,338,5.8,5.8,44,0.00,CLR,,0.00,WeatherDisplay:10.37,2013-06-12 20:49:00,
2013-06-12 23:50:00,68.7,45.9,29.53,North,0,6.9,6.9,44,0.00,CLR,,0.00,WeatherDisplay:10.37,2013-06-12 20:50:00,
2013-06-12 23:53:00,68.7,45.9,29.53,NNE,22,6.9,6.9,44,0.00,CLR,,0.00,WeatherDisplay:10.37,2013-06-12 20:53:00,
2013-06-12 23:54:00,68.9,46.1,29.50,NNE,22,6.4,6.4,44,0.00,CLR,,0.00,WeatherDisplay:10.37,2013-06-12 20:54:00,
2013-06-12 23:55:00,68.9,46.1,29.50,NNW,338,6.9,6.9,44,0.00,CLR,,0.00,WeatherDisplay:10.37,2013-06-12 20:55:00,
2013-06-12 23:58:00,68.7,46.5,29.50,NNW,338,4.6,4.6,45,0.00,CLR,,0.00,WeatherDisplay:10.37,2013-06-12 20:58:00,